ECMWFFLT1_850_thetae_072.txt.gz
Theta_e
331 331 331 331 330 330 330 330 330 329 327 328 328 328 328 329 329 329 329 329 329 328 327 328 328 327 327 326 328 329 328 329 330 329 329 328 328 328 328 327 327 328 328 326 325 325 325 326 326 326 326 327 326 326 327 326 326 326 326 326 325 325 325
332 331 331 331 330 330 330 329 329 327 326 328 329 330 330 330 330 329 328 329 329 328 327 328 328 327 326 327 327 328 329 330 330 329 329 328 328 328 328 328 328 328 327 326 326 325 324 325 326 326 326 327 327 327 327 326 326 326 326 326 325 325 325
332 332 332 331 331 330 329 329 329 327 327 330 331 331 330 329 329 328 328 329 329 328 328 329 328 328 328 328 327 328 329 330 330 330 329 327 328 328 328 327 327 327 326 326 326 326 324 324 325 325 326 326 326 326 326 326 326 326 326 325 325 325 325
333 332 332 332 330 329 329 329 328 328 330 331 330 330 329 328 327 328 329 329 330 329 328 328 328 328 329 328 329 329 328 329 330 330 329 328 327 327 327 327 326 325 325 325 326 326 325 324 325 325 325 326 326 326 326 326 326 325 325 325 324 324 324
333 332 331 331 329 329 329 328 328 330 331 330 329 330 329 328 327 328 330 330 330 329 329 329 329 329 329 328 329 329 328 329 329 329 329 329 327 327 327 327 326 326 325 326 326 326 326 325 324 325 326 326 325 325 325 325 325 325 323 322 322 322 322
332 331 331 330 329 328 328 328 330 331 330 329 330 330 329 328 327 329 330 329 329 329 329 330 330 330 329 328 329 329 328 329 329 329 329 329 328 328 328 327 327 327 326 326 326 326 326 326 325 326 326 325 325 325 325 325 324 324 322 321 320 320 321
332 331 331 330 329 328 327 328 331 330 328 329 330 329 328 327 327 328 328 328 328 328 329 329 330 330 329 328 328 327 327 327 327 328 328 329 329 328 328 327 327 328 327 327 327 326 327 326 325 326 325 324 324 324 325 324 323 323 321 320 320 320 320
332 331 330 330 328 327 327 330 330 329 329 330 329 329 328 327 326 327 327 326 327 327 328 329 329 330 329 328 327 326 325 326 327 327 328 329 329 328 328 327 327 328 327 327 326 327 327 327 326 325 324 323 323 324 324 324 323 323 322 320 319 319 319
331 331 330 329 327 327 329 330 329 329 330 330 329 329 328 327 326 326 326 326 327 326 327 328 329 329 329 328 326 325 325 326 326 326 327 328 328 327 327 327 327 328 327 326 326 326 327 326 326 325 323 321 322 323 324 324 323 323 322 319 317 318 319
331 331 330 328 326 328 330 329 329 330 330 330 329 329 329 328 325 324 324 324 325 325 326 328 329 328 328 327 325 324 324 325 325 325 326 327 326 327 327 326 327 327 326 326 326 327 327 327 326 324 322 321 320 321 323 323 323 322 321 319 316 317 319
331 331 330 327 327 329 330 329 330 330 330 329 329 329 329 327 325 323 321 322 323 324 325 327 328 328 328 327 326 325 325 325 325 325 326 326 326 327 327 326 326 327 326 326 326 327 327 326 325 322 321 321 320 319 320 321 321 320 320 319 316 315 316
331 330 329 328 327 329 329 329 329 330 329 328 328 328 328 326 324 322 321 322 322 323 324 325 326 327 327 326 326 325 325 325 326 326 326 325 325 327 326 326 326 327 327 327 326 326 326 326 324 322 321 320 320 320 319 319 319 319 319 318 316 316 314
330 330 329 328 327 329 330 329 328 328 328 327 327 327 327 325 325 323 322 321 319 321 323 322 322 324 323 324 325 325 325 325 325 326 326 325 326 326 326 326 326 327 327 327 326 326 326 326 325 323 322 321 320 320 320 319 319 318 319 318 317 316 313
329 330 329 328 328 328 328 328 328 328 328 327 327 327 326 326 325 324 323 320 318 320 321 320 320 320 320 322 325 325 325 325 325 326 326 326 326 326 326 327 326 326 327 327 327 327 327 326 326 325 323 321 321 321 320 320 319 318 318 317 316 316 314
329 330 329 328 328 327 327 328 328 328 328 327 327 327 326 325 326 325 322 320 319 320 321 320 319 318 319 322 323 323 323 323 324 325 325 326 326 325 326 327 327 326 327 327 327 327 327 326 325 325 323 322 322 323 322 321 320 318 317 316 316 315 315
330 330 329 328 328 327 326 327 328 328 328 327 327 327 326 325 327 325 322 322 322 322 321 320 320 319 320 321 322 323 323 322 322 323 324 326 326 325 326 327 326 326 326 326 327 327 326 326 325 324 323 323 323 322 323 321 319 318 317 316 316 315 315
331 329 328 328 328 328 327 327 328 328 327 327 327 326 325 326 326 323 320 323 324 324 323 321 321 322 321 322 323 323 323 324 323 321 321 324 326 326 326 326 326 326 326 326 326 326 325 324 324 324 322 321 320 320 321 320 319 319 317 316 316 315 314
330 329 328 328 328 328 328 327 327 327 327 328 326 325 325 326 323 317 317 323 324 324 324 322 322 323 322 322 322 321 322 324 323 320 320 323 326 327 326 326 325 326 325 325 324 324 323 322 322 321 319 318 318 319 320 319 319 319 317 316 316 315 314
329 328 328 328 328 329 328 327 326 327 327 327 325 325 326 324 320 315 316 321 324 324 324 322 322 322 322 322 321 321 322 323 321 321 323 324 326 327 327 326 326 326 324 323 323 322 321 321 320 319 318 318 318 319 319 319 319 317 316 317 318 316 314
329 328 328 328 328 328 328 327 327 328 327 326 326 326 325 323 321 318 318 321 323 324 323 322 322 321 321 322 322 322 322 322 322 322 323 325 326 327 327 327 326 325 324 322 322 321 320 320 320 319 318 318 318 318 318 317 317 316 317 318 318 317 315
329 328 327 328 328 328 328 327 327 328 326 326 326 326 323 322 322 319 319 322 323 323 322 322 322 321 320 321 322 322 322 322 322 322 322 324 326 326 327 327 325 324 322 322 322 321 320 320 319 319 318 318 318 318 318 317 317 317 317 318 318 318 317
329 328 327 328 328 328 327 327 327 326 325 326 326 324 322 323 322 319 319 322 323 322 322 322 321 320 319 320 320 321 321 321 322 322 321 323 325 325 325 324 323 322 322 321 321 321 320 320 320 319 319 319 318 319 318 318 318 319 318 318 318 318 317
330 329 327 327 328 327 326 326 326 324 324 326 326 324 322 323 322 319 318 321 323 322 321 322 321 319 317 318 319 320 320 321 322 321 320 323 324 324 323 323 322 322 321 321 321 321 320 319 319 319 319 319 319 319 319 318 318 319 318 318 318 318 318
330 329 327 327 328 326 324 325 325 324 325 326 325 324 324 324 322 319 318 320 323 322 320 321 321 319 317 316 318 320 320 321 322 321 320 322 323 322 321 321 322 321 321 321 321 321 320 320 319 318 318 319 319 319 319 319 319 319 319 319 319 319 319
330 329 327 327 327 325 324 325 325 325 326 325 324 324 324 323 320 318 318 319 321 321 320 320 320 319 317 316 318 320 320 320 321 321 320 321 322 321 320 320 320 321 321 321 321 320 320 320 318 317 317 318 319 319 319 319 319 319 319 319 319 319 319
329 328 327 327 326 324 323 324 325 326 326 325 325 324 323 322 320 318 318 318 318 319 320 320 319 319 318 316 317 319 320 319 320 320 320 320 321 321 320 320 320 321 320 320 320 320 320 319 318 315 315 316 318 319 319 319 318 318 318 318 318 318 318
328 328 327 327 326 324 322 323 325 326 325 324 324 323 322 322 320 318 318 317 317 318 319 319 319 319 318 317 318 319 319 319 319 319 319 320 320 320 320 320 320 320 320 319 319 319 318 318 316 315 315 315 316 317 317 318 318 317 317 316 316 317 317
327 327 326 327 326 324 323 323 325 325 324 323 322 321 322 321 320 319 318 317 317 317 318 319 319 319 319 319 319 319 319 319 319 319 319 320 320 320 320 320 320 319 319 319 319 319 318 318 317 317 317 317 317 317 317 317 318 318 317 317 317 316 316
326 326 326 326 325 324 322 323 323 323 322 321 321 320 320 320 319 319 318 318 318 317 317 318 319 319 319 319 319 319 319 319 319 319 319 319 319 320 320 320 320 320 319 318 319 319 318 318 317 317 317 317 317 318 318 318 317 317 317 317 317 316 316
325 325 325 324 323 322 322 322 322 321 321 321 321 320 320 320 319 319 318 318 318 317 318 318 319 319 319 319 319 319 319 319 319 319 319 319 319 319 320 319 319 320 318 317 317 317 316 315 314 313 314 316 317 317 317 317 317 317 317 317 317 317 317
323 324 324 323 321 321 322 321 321 320 320 320 320 320 320 320 319 318 318 318 318 318 318 317 318 318 318 319 319 319 318 318 317 317 317 317 317 316 317 316 315 316 315 315 315 314 314 314 313 312 312 314 315 317 317 317 317 317 317 317 317 317 316
321 322 323 322 322 321 321 320 320 320 320 320 320 319 319 319 319 317 316 316 316 316 316 316 316 316 317 317 317 318 317 317 316 315 315 315 315 315 315 313 311 312 312 313 313 314 314 313 313 313 312 312 314 316 316 315 315 315 315 315 315 314 314
317 318 318 318 319 319 318 318 318 317 317 317 317 317 316 316 315 313 311 311 311 311 311 312 313 313 314 315 315 315 315 315 315 315 315 315 314 314 313 311 311 312 312 313 314 315 316 316 315 314 314 313 315 316 315 314 313 313 312 312 311 311 311
315 315 315 315 316 316 315 315 315 315 314 314 314 314 313 313 313 312 312 312 311 310 310 310 310 311 312 313 313 312 313 313 313 312 312 312 312 313 312 312 312 313 313 313 314 315 315 316 315 315 315 315 314 314 313 312 310 308 307 306 305 304 305
314 313 314 314 315 315 315 315 315 315 315 315 315 315 314 314 315 314 315 314 312 311 311 311 311 311 312 312 312 311 311 311 311 311 311 312 312 312 313 313 313 314 314 314 314 314 313 313 313 313 313 312 310 307 305 304 302 301 300 300 300 300 300
313 313 313 313 313 313 313 314 314 315 315 315 315 315 315 315 314 314 314 313 312 312 312 312 312 313 313 312 313 313 313 313 313 313 312 313 313 313 313 313 313 312 311 310 309 307 306 305 305 306 305 304 302 300 299 298 298 298 299 299 300 300 300
310 311 311 312 312 312 312 312 312 313 313 314 314 314 314 314 314 313 312 312 311 311 310 310 311 312 312 311 312 311 312 312 311 311 311 311 310 310 310 308 307 305 304 303 301 300 299 299 299 299 299 299 298 298 299 299 300 300 301 302 302 302 302

ECMWFFLT1_850_thetae_075.txt.gz
Theta_e
332 333 332 331 332 332 332 332 332 332 332 331 331 330 330 329 329 329 329 329 329 330 330 329 329 329 328 328 328 328 328 327 326 327 328 328 328 328 328 328 327 326 327 327 326 325 324 324 325 326 325 325 325 325 326 326 326 326 325 325 325 325 325
332 333 332 331 331 332 332 331 331 331 332 331 330 329 329 329 329 328 329 330 330 330 330 329 328 327 327 327 327 327 327 327 326 327 329 329 328 327 327 328 328 327 327 328 327 325 324 323 325 326 325 326 325 325 326 326 326 326 325 325 325 325 325
333 333 332 332 332 331 331 331 331 331 331 330 329 328 328 328 329 328 329 330 330 329 328 327 327 327 328 327 325 325 326 327 327 328 329 329 329 328 327 327 327 327 327 328 327 325 325 324 324 325 325 326 325 325 326 326 325 325 325 325 325 325 325
333 333 333 332 332 331 331 331 330 331 330 328 327 328 328 329 330 329 329 330 330 329 327 327 328 328 328 326 324 325 327 327 328 329 329 329 329 328 327 327 327 327 327 327 326 325 325 324 323 324 325 326 325 325 326 326 325 325 325 325 325 325 324
332 333 332 332 332 331 331 330 330 330 328 327 327 329 329 330 330 330 329 329 330 328 327 328 329 328 327 326 325 326 327 327 328 329 329 329 329 328 328 327 327 327 327 326 325 325 325 325 324 324 325 325 325 326 326 325 325 325 325 325 324 324 324
332 332 333 332 332 331 331 330 329 329 328 327 329 330 330 330 329 328 328 329 329 328 327 328 328 328 327 326 327 327 327 328 328 329 329 329 328 328 328 327 327 327 327 326 326 325 326 325 324 324 324 325 325 326 325 325 325 325 324 323 322 321 322
332 333 333 333 332 331 330 329 329 328 327 327 329 330 330 329 328 327 328 329 329 328 327 327 327 327 328 327 328 328 328 329 329 328 328 328 328 328 328 327 327 327 327 326 326 326 326 326 325 324 324 325 325 325 325 325 324 323 322 321 320 320 321
332 333 333 333 332 331 330 328 328 328 327 328 329 329 328 328 327 327 328 329 329 328 327 327 327 327 328 328 328 328 329 329 329 329 329 328 328 328 328 328 328 328 327 327 327 327 327 326 325 325 325 325 325 325 325 324 324 322 320 319 319 319 320
333 333 333 332 332 331 330 328 328 327 328 329 330 328 327 327 327 326 328 329 329 328 328 327 328 327 328 328 327 328 328 328 328 328 328 327 328 328 329 329 329 328 327 327 327 327 327 327 326 326 325 324 324 324 324 324 323 322 320 318 319 319 319
333 333 332 332 331 331 330 328 327 327 329 330 329 328 328 327 326 326 328 328 328 328 328 328 328 328 328 328 327 327 327 326 327 327 327 327 327 328 329 329 328 328 327 327 327 327 327 327 327 326 325 325 322 321 323 323 322 322 320 317 318 319 319
330 332 332 331 331 330 329 327 327 328 330 329 328 328 328 327 326 325 326 326 326 326 327 327 328 328 328 328 327 326 326 325 325 326 326 326 326 327 327 328 328 327 327 327 327 326 326 327 327 326 326 325 323 320 320 321 322 321 320 317 316 317 317
328 331 331 330 330 329 327 327 328 329 329 328 327 328 328 327 326 324 324 324 323 325 325 326 327 328 328 328 327 326 325 325 325 325 326 325 325 326 326 327 327 326 326 327 326 326 326 327 327 327 326 325 323 321 320 320 320 320 318 316 315 315 314
329 331 331 330 330 328 326 328 329 329 329 326 326 328 328 327 326 324 323 322 322 323 324 324 326 328 328 327 327 326 325 325 325 325 325 325 325 325 326 327 326 326 326 327 326 326 326 327 327 326 325 324 322 320 319 319 318 317 317 316 316 316 314
330 331 331 330 329 327 327 329 329 329 328 327 327 328 328 327 327 325 323 321 321 322 322 322 325 326 327 327 327 326 325 325 325 325 325 325 325 325 325 326 326 326 326 327 326 326 326 326 326 324 323 322 321 320 319 319 319 318 317 316 316 316 315
331 331 331 330 328 326 327 329 329 329 329 328 328 328 327 328 327 326 324 322 322 322 322 323 324 324 325 326 326 326 325 325 325 326 325 325 324 325 325 326 326 326 326 327 327 326 326 327 326 324 322 321 321 320 320 320 320 319 318 316 316 316 316
331 330 329 329 328 326 327 328 329 329 329 328 328 327 327 327 327 325 324 323 321 320 320 322 321 322 323 323 324 325 325 325 325 325 325 324 325 325 325 325 326 326 326 327 326 326 326 327 326 325 324 324 322 321 321 321 321 321 320 318 316 315 315
330 329 328 329 328 327 326 327 328 328 328 328 328 327 326 326 326 325 324 323 320 318 319 319 319 320 321 321 322 324 323 323 324 324 324 324 325 325 325 325 326 326 326 327 326 326 326 327 326 325 325 325 323 321 321 322 322 322 322 320 317 316 315
329 329 329 329 329 328 327 327 328 328 327 328 328 326 327 327 325 325 324 322 319 319 320 319 318 319 319 320 322 322 321 321 322 322 322 323 325 325 325 325 326 327 326 326 326 326 326 326 325 325 324 324 322 322 322 322 322 322 322 321 318 316 315
329 329 329 329 329 329 328 328 328 328 327 328 327 327 327 327 325 325 324 321 320 321 320 319 320 320 320 321 322 321 321 322 322 320 319 322 325 326 326 326 326 327 326 326 326 325 325 325 324 324 323 322 320 320 321 321 321 321 321 320 317 316 316
329 329 329 329 329 329 328 328 327 327 328 327 327 327 327 326 325 324 322 321 323 323 321 321 322 322 322 322 322 321 321 322 322 320 321 323 325 326 326 326 326 326 326 326 325 325 323 323 322 322 322 320 319 318 318 319 319 320 320 318 317 316 317
329 329 329 329 329 328 328 328 325 326 327 327 327 327 326 326 325 321 321 323 324 323 321 321 322 322 321 321 321 320 321 322 321 321 323 325 325 326 327 327 325 324 325 325 324 322 321 320 320 320 320 319 318 318 318 318 318 319 318 317 316 317 317
328 329 329 329 329 328 328 328 325 324 326 327 327 326 325 326 322 316 319 324 325 324 322 321 322 322 321 321 321 320 321 321 322 322 323 324 325 327 326 325 323 322 324 324 322 320 320 320 320 319 319 318 318 318 318 318 318 317 317 316 315 316 317
327 328 329 329 329 328 327 327 325 323 325 326 326 325 325 324 319 315 318 322 324 324 323 322 321 322 321 321 321 321 321 321 321 322 322 323 325 326 325 323 322 322 322 321 320 320 320 320 319 319 319 318 318 318 318 317 317 317 316 317 316 315 315
326 327 328 328 329 328 327 326 324 323 324 324 324 325 325 322 319 317 317 320 323 324 323 322 322 321 321 321 321 321 321 321 321 322 321 322 324 325 324 323 322 321 321 320 320 320 319 319 319 319 319 319 319 318 318 318 318 318 318 318 317 316 315
325 326 327 328 328 328 328 326 323 323 325 324 324 326 324 321 320 319 318 321 323 323 322 322 321 320 320 320 321 321 321 320 321 321 320 322 324 324 323 322 321 321 320 320 320 320 320 319 319 319 319 319 319 319 319 318 318 318 319 319 318 317 317
324 325 326 327 328 328 328 327 324 323 325 324 324 325 324 322 320 319 320 322 322 321 321 321 320 319 318 317 319 320 320 320 321 320 320 322 324 323 322 322 321 321 320 320 320 320 320 320 319 318 318 318 319 319 319 319 319 319 319 319 318 318 318
324 325 325 326 327 328 327 327 325 324 324 323 324 325 324 322 321 319 319 322 322 321 321 321 321 320 317 316 317 319 320 321 322 321 320 321 322 321 321 321 321 321 321 320 320 320 320 320 319 318 317 316 316 317 318 318 318 318 318 318 317 317 317
324 325 325 325 326 328 327 326 325 323 323 324 324 324 323 323 322 320 318 320 322 321 320 320 320 319 317 317 317 319 320 320 322 322 321 321 322 321 321 321 320 320 320 320 320 320 319 319 319 318 316 315 315 316 317 317 317 317 317 317 317 317 317
324 324 324 325 326 327 327 325 324 322 323 324 324 324 324 323 322 320 318 319 321 321 320 320 319 318 318 317 317 318 319 319 321 321 321 321 322 322 321 321 320 320 320 320 319 319 318 318 318 317 316 316 316 316 316 316 315 316 316 316 316 316 316
322 324 323 324 325 326 325 325 324 322 322 324 323 322 323 323 320 319 318 318 320 320 320 320 319 318 318 318 316 317 319 319 319 320 320 320 321 321 321 320 319 319 319 319 319 318 318 318 318 317 316 315 314 314 313 312 313 314 315 315 316 316 316
320 322 322 321 323 325 325 324 322 321 322 323 322 320 321 321 319 318 318 318 319 319 319 319 319 318 319 318 317 317 318 319 319 319 319 320 320 320 320 320 319 320 319 318 318 318 317 317 316 315 315 314 313 313 312 312 312 313 314 315 316 316 316
316 317 318 318 319 322 323 322 320 320 320 321 320 319 319 319 318 317 318 318 318 318 318 319 319 319 319 319 319 319 319 319 319 319 319 320 320 319 319 318 318 318 318 317 317 317 316 315 315 315 314 314 313 313 313 313 312 313 314 315 315 315 314
314 314 315 315 316 318 321 321 320 319 319 319 319 318 317 317 317 317 317 317 318 318 318 318 318 317 317 318 318 318 319 318 319 319 319 319 318 316 315 315 315 314 314 314 314 315 314 314 314 314 313 313 313 313 313 313 313 313 313 314 314 313 313
314 314 313 313 314 316 318 318 318 318 318 319 318 317 316 316 317 316 316 316 317 317 317 317 316 316 316 316 315 316 316 316 317 317 317 317 316 315 315 315 314 314 313 312 312 313 313 314 314 314 314 314 314 314 314 314 314 314 314 313 312 311 309
314 314 313 312 312 313 314 314 314 314 315 316 315 313 312 312 313 313 313 314 315 315 315 315 315 315 315 315 315 315 315 315 315 315 315 315 315 314 314 314 313 313 312 312 312 313 313 313 314 314 314 314 313 313 312 312 311 311 310 308 305 304 302
314 314 314 313 312 312 312 312 313 312 312 313 312 311 310 310 310 310 311 312 312 312 312 312 312 312 313 313 313 313 313 313 313 313 313 313 312 312 312 312 312 312 312 312 312 312 313 313 313 312 311 309 306 305 303 303 302 301 301 300 300 300 301
312 313 313 313 312 312 312 312 312 313 313 313 313 312 312 312 312 312 312 312 311 311 311 311 311 311 311 312 312 312 312 312 312 312 312 312 312 312 312 312 312 313 313 313 313 312 311 310 307 305 303 301 300 299 299 299 298 299 299 300 300 301 301

ECMWFFLT1_850_thetae_078.txt.gz
Theta_e
334 333 333 333 332 333 332 332 331 331 330 329 329 331 331 331 330 330 329 328 327 327 327 328 329 328 328 329 329 330 329 327 327 327 327 328 328 329 329 328 327 326 326 326 326 325 324 324 324 324 325 326 325 323 323 324 325 325 325 324 324 324 324
332 333 333 333 333 333 332 332 331 331 332 331 331 331 331 331 330 329 329 328 327 327 326 328 329 328 328 329 330 330 329 327 327 327 327 328 328 328 328 327 327 327 326 326 327 326 324 324 324 324 325 325 325 324 324 325 325 326 325 325 325 325 325
331 332 332 332 333 333 332 332 331 331 331 332 332 331 331 330 330 329 329 328 328 327 327 328 329 329 329 329 330 329 328 327 327 327 327 328 329 329 328 328 327 326 326 326 326 326 325 324 323 324 324 324 324 324 325 326 326 325 325 325 325 325 325
331 330 330 331 333 334 333 332 331 331 331 331 331 331 330 330 329 328 328 328 328 328 328 329 329 329 329 329 329 328 327 326 326 326 327 329 330 329 329 328 327 326 326 326 327 326 325 325 324 323 324 324 323 324 325 326 326 325 325 325 325 325 324
331 329 328 329 331 331 331 332 332 331 330 331 331 331 330 329 328 328 328 327 328 328 329 329 329 329 329 328 327 326 326 326 327 327 328 329 330 330 329 329 328 327 327 327 327 326 326 325 325 324 324 324 323 324 325 326 325 325 325 325 325 324 324
328 326 326 328 330 330 328 330 331 331 330 330 331 331 329 328 327 326 327 327 328 329 329 329 328 328 328 327 326 325 325 326 327 327 328 330 330 329 329 329 328 327 328 328 327 326 326 325 325 324 324 324 324 324 325 325 325 325 325 325 324 324 323
325 324 326 328 330 330 329 329 330 331 330 330 329 329 327 326 326 326 327 328 328 329 329 329 327 327 328 328 326 325 325 326 328 328 329 329 329 329 329 329 329 328 328 328 327 326 326 325 326 325 324 324 325 324 325 325 324 325 325 324 323 322 322
324 325 327 329 329 330 331 330 330 331 330 330 329 327 325 326 327 328 329 328 327 328 329 328 327 327 328 328 327 326 326 327 328 328 328 329 329 329 329 328 328 328 328 327 327 326 326 326 326 325 324 324 325 325 325 325 324 324 323 322 321 320 320
327 326 328 330 329 330 331 331 330 331 330 330 328 327 327 328 329 329 329 328 327 328 329 328 328 328 328 328 328 327 327 328 328 328 328 328 329 328 329 328 328 328 328 327 327 326 326 327 326 326 325 324 324 324 324 324 324 324 321 319 319 319 320
330 329 329 330 329 330 331 331 330 330 330 330 328 327 328 330 330 329 328 327 327 328 328 328 328 328 328 328 328 328 328 329 328 329 328 328 328 328 328 328 328 328 328 327 327 327 327 327 326 326 325 325 324 323 323 323 324 323 320 318 319 319 320
329 330 331 331 331 331 332 331 330 329 329 329 328 328 329 330 329 328 327 326 326 327 328 328 328 328 328 329 329 328 328 329 328 328 328 328 328 328 328 328 328 328 328 327 327 327 327 327 327 326 326 325 325 324 322 321 323 323 319 317 318 319 319
328 328 330 330 330 330 331 330 330 329 329 328 328 328 329 329 328 327 325 325 326 327 328 328 328 328 329 329 329 329 328 328 328 327 327 327 327 327 327 328 328 327 327 327 326 327 327 327 327 327 326 325 325 325 322 320 322 322 318 316 316 316 315
327 326 325 325 327 328 329 329 329 329 329 327 328 329 330 329 326 325 324 324 325 327 328 328 328 328 329 329 329 329 328 327 327 326 326 326 326 326 326 327 327 327 327 326 326 327 327 326 327 327 326 326 325 325 322 320 321 320 316 315 315 314 312
328 325 323 323 326 328 329 329 329 329 328 326 327 329 329 327 325 324 325 324 325 327 327 328 328 328 328 328 328 329 328 327 326 326 325 325 325 325 325 325 326 326 326 326 326 327 326 326 327 327 326 326 325 324 322 319 319 318 316 315 315 315 314
328 328 327 326 328 329 329 329 329 328 326 326 327 329 328 326 325 325 325 324 324 325 325 326 328 328 328 328 328 328 327 327 326 325 325 325 325 325 325 325 325 326 326 326 326 326 326 326 326 326 325 324 323 322 321 320 319 318 316 316 315 315 315
328 329 329 329 329 330 329 329 328 327 326 327 328 329 328 327 326 327 326 325 323 323 323 324 326 327 326 328 328 327 327 326 326 325 325 325 325 325 325 325 325 326 326 325 326 326 326 326 326 326 323 321 321 321 320 320 320 320 319 318 317 316 315
328 329 329 328 328 329 329 328 327 326 327 329 329 329 328 327 328 328 327 325 324 322 321 323 325 325 326 327 328 327 327 326 326 325 325 325 325 325 325 325 325 326 325 325 326 326 326 326 326 325 322 320 320 320 320 320 321 321 321 321 320 319 317
328 328 328 328 328 329 329 328 326 325 327 329 329 329 329 328 329 329 327 325 324 322 321 322 323 324 325 326 327 326 326 326 325 325 324 324 325 325 325 325 325 325 325 325 325 326 326 326 325 325 323 321 320 321 321 321 321 321 321 321 322 321 319
329 328 329 329 329 329 329 327 326 325 325 326 329 329 329 328 328 328 328 326 324 322 321 321 322 323 323 323 324 324 324 325 325 324 324 324 325 325 326 326 325 325 325 326 326 325 326 326 325 326 325 322 321 321 321 321 322 322 321 321 321 322 321
329 329 329 329 329 328 329 328 327 326 325 326 328 329 328 327 327 328 327 325 324 322 321 320 320 321 321 320 321 321 322 323 323 322 322 323 324 325 326 326 325 326 326 326 326 326 326 326 325 326 325 322 321 321 321 320 321 321 321 321 321 321 321
328 328 329 329 328 328 329 329 327 327 326 326 328 328 328 327 327 327 326 325 324 322 321 320 320 320 319 319 320 321 322 322 322 321 321 322 323 324 326 326 326 326 326 326 326 326 326 325 325 325 323 322 321 320 319 319 319 320 320 320 320 320 319
326 327 328 328 329 328 329 329 328 328 327 326 327 327 327 327 327 327 326 325 325 323 321 321 321 320 319 320 321 321 322 322 322 321 322 323 324 324 325 326 326 326 326 326 326 325 323 322 323 323 322 320 320 319 318 317 318 318 318 319 319 318 317
325 325 326 327 328 329 329 329 329 329 327 326 326 327 328 327 327 326 325 326 325 323 322 322 322 322 321 321 321 321 321 321 322 321 322 323 324 325 325 326 327 326 325 325 325 322 320 320 320 320 320 319 318 318 318 318 317 317 317 317 317 316 315
323 324 325 326 326 327 328 329 329 329 328 326 325 327 328 326 327 327 325 325 324 323 324 324 322 322 322 321 321 320 320 321 321 321 323 323 323 325 326 326 325 324 324 324 322 320 319 320 319 319 319 318 318 318 318 318 317 317 317 316 316 315 315
322 323 324 325 326 326 327 328 328 329 329 327 325 326 327 326 326 326 326 325 323 323 325 324 322 322 322 321 321 320 320 320 321 321 322 322 323 325 326 324 323 323 323 322 320 319 319 319 319 319 318 318 318 318 318 318 318 318 317 317 317 317 316
321 323 323 324 325 325 326 326 327 328 328 326 324 325 327 326 325 326 325 323 321 323 325 324 322 322 321 321 321 321 321 320 320 321 322 321 323 325 324 323 322 321 321 320 319 319 319 319 319 319 318 318 318 318 318 318 318 318 318 318 318 318 318
321 322 323 324 324 325 325 325 326 328 328 326 324 325 325 325 325 325 322 319 320 323 325 323 322 322 321 321 321 321 321 321 320 321 321 321 323 323 322 321 321 320 319 319 319 319 319 319 319 318 318 319 319 319 319 319 318 318 318 318 318 318 317
320 321 323 324 324 324 325 325 326 327 327 326 325 325 325 325 325 323 320 319 322 324 324 323 323 322 321 320 320 320 321 320 320 321 320 321 323 322 321 320 320 319 319 319 319 319 319 319 319 318 318 318 317 317 317 318 318 318 317 317 317 316 316
319 319 321 323 324 324 324 324 324 326 327 326 325 325 325 325 324 322 319 320 322 324 323 323 322 321 320 318 317 318 319 319 320 321 320 321 323 323 321 321 320 320 319 319 319 319 319 319 318 318 317 316 315 315 315 316 316 315 314 314 314 314 314
317 318 319 321 322 322 323 322 323 325 326 325 326 325 324 324 324 322 320 320 322 323 323 322 321 321 319 317 316 317 319 319 320 322 321 321 322 323 321 320 320 320 320 320 319 318 318 317 317 317 317 316 316 315 315 314 313 313 312 312 312 312 312
315 315 316 318 320 320 320 320 320 322 324 325 325 324 322 323 324 323 321 320 321 322 322 321 321 321 319 317 316 317 318 319 320 322 322 322 322 322 321 320 319 319 319 319 318 318 318 318 318 317 316 315 315 314 314 313 313 313 313 312 312 311 311
313 314 313 314 316 318 318 318 318 319 321 323 323 321 320 322 322 321 321 320 319 320 322 321 321 320 319 317 317 317 318 319 319 321 321 321 321 321 320 320 319 318 318 319 319 318 318 318 318 316 315 314 314 314 314 313 313 313 313 312 312 312 312
312 312 312 312 312 314 314 315 315 316 318 319 320 318 317 317 317 317 319 319 319 320 321 321 320 319 318 317 317 317 318 318 319 320 320 320 320 320 319 319 318 318 318 317 318 319 319 318 317 315 314 314 314 314 314 314 313 313 313 313 313 313 312
312 311 311 311 311 311 311 312 313 314 314 315 316 315 315 315 316 316 318 318 319 319 319 319 319 319 318 318 318 319 318 318 319 319 319 319 319 318 318 317 317 317 316 315 316 317 316 315 314 313 313 313 313 313 313 314 314 313 313 313 312 311 311
312 311 311 311 311 311 311 310 311 313 314 314 314 314 315 316 316 317 318 318 318 319 319 319 319 319 319 319 319 319 319 319 319 319 319 319 318 316 316 316 316 316 315 314 313 314 313 313 312 312 312 312 312 312 313 313 313 312 311 310 308 307 305
311 311 311 312 312 312 312 311 311 311 312 313 314 314 314 315 315 316 317 317 317 317 317 318 318 318 318 318 318 318 318 318 318 317 317 317 316 315 315 315 314 314 314 313 312 312 312 311 311 311 311 311 312 312 311 309 307 305 303 301 301 301 302
309 310 311 311 311 312 311 311 311 310 310 311 312 312 312 312 312 313 314 314 314 314 314 315 315 316 315 315 315 315 314 315 315 314 314 314 314 314 313 313 312 312 312 311 310 310 310 311 311 311 310 309 308 306 303 301 300 299 299 300 301 302 302

ECMWFFLT1_850_thetae_084.txt.gz
Theta_e
332 332 332 331 331 332 333 333 331 331 332 332 332 331 331 332 332 332 332 332 332 332 332 331 330 328 329 330 330 330 332 333 332 333 333 333 331 331 331 332 330 328 329 331 330 330 330 330 330 329 329 329 329 329 329 329 328 327 326 325 325 326 326
332 332 332 332 333 333 333 333 332 333 333 332 332 331 330 331 332 332 332 331 331 332 332 331 332 331 331 332 332 332 331 331 331 332 333 333 332 332 332 332 331 330 330 330 330 330 329 329 329 330 329 329 330 329 328 328 327 327 327 326 326 326 326
332 332 332 332 332 331 331 332 332 333 333 332 331 332 332 331 331 331 332 331 332 332 332 332 333 333 333 332 332 331 330 331 331 331 332 333 332 332 332 331 331 331 331 331 331 330 330 329 329 329 329 329 329 328 327 327 326 326 326 326 326 326 326
332 332 333 331 327 328 329 329 329 331 332 331 332 333 332 331 331 331 331 331 332 332 332 332 332 332 333 332 331 330 330 331 332 331 332 332 331 332 332 331 331 331 331 331 330 330 329 329 329 329 329 328 328 328 328 327 326 325 326 326 326 326 326
332 332 333 332 328 329 329 327 326 328 330 331 332 332 332 332 331 331 331 331 331 331 331 331 331 331 332 332 332 331 331 331 331 332 332 331 331 331 332 331 331 331 331 330 329 329 329 329 329 329 329 328 328 329 328 326 325 326 326 327 326 326 326
331 331 332 333 331 330 329 326 325 326 327 329 329 330 331 331 331 331 331 331 331 331 330 331 330 329 330 332 332 332 331 331 332 331 331 331 330 330 332 331 331 331 330 330 329 330 329 329 329 328 328 328 328 329 328 326 326 327 327 326 326 326 325
332 331 331 332 330 328 327 326 325 325 326 327 328 328 329 330 331 330 330 330 331 331 330 330 330 330 331 332 333 332 331 332 332 330 330 331 330 330 330 330 330 331 330 330 329 330 329 329 329 329 329 329 328 328 328 327 328 327 327 326 326 326 325
331 330 331 331 330 329 327 326 325 326 325 325 326 326 327 330 330 330 330 331 331 331 331 330 330 331 331 331 332 331 330 332 332 331 332 331 331 331 330 330 331 331 330 330 329 329 329 329 329 329 329 329 329 328 328 328 328 328 327 326 325 325 324
330 330 331 331 330 330 329 328 327 327 326 326 325 324 325 328 330 331 331 331 331 330 330 330 329 330 330 330 331 331 330 332 333 332 332 331 330 331 331 331 332 331 330 331 330 329 329 329 329 329 329 329 328 329 328 328 328 328 327 327 325 325 325
330 329 330 331 330 330 330 330 329 328 326 326 325 324 324 327 329 330 331 331 331 330 330 329 328 330 330 330 330 332 332 332 333 332 331 331 330 329 330 331 331 329 328 329 329 329 330 330 329 329 329 328 328 328 328 328 328 327 327 327 326 325 325
329 329 329 330 330 330 331 330 330 328 326 326 326 324 324 327 328 328 329 330 330 330 329 328 328 330 331 329 330 332 333 333 332 332 331 331 331 330 330 330 330 328 327 327 328 329 330 330 330 330 329 328 328 328 327 327 328 328 327 327 326 325 324
328 329 329 330 330 330 330 329 328 325 324 326 328 327 325 326 327 327 327 329 330 329 329 328 328 330 331 330 330 332 333 333 332 332 332 332 332 332 331 330 330 329 327 328 329 330 330 331 330 330 330 329 328 328 327 327 327 328 327 327 326 325 324
328 329 329 329 329 330 329 328 327 326 324 326 328 329 327 326 327 327 327 328 328 328 329 329 329 330 330 330 331 331 332 333 333 331 332 332 332 331 330 330 330 328 328 329 330 330 330 330 330 330 330 329 329 329 328 328 327 327 328 326 326 325 324
328 328 329 329 330 330 329 327 327 327 326 327 329 330 329 328 328 328 328 329 328 329 330 331 330 331 332 331 331 331 332 333 332 331 332 332 331 331 330 330 329 328 328 328 329 330 331 330 330 330 330 330 329 329 328 327 327 328 327 325 324 324 323
328 328 329 329 330 330 329 328 327 327 327 328 329 330 330 330 328 328 329 329 329 330 330 329 330 332 332 331 332 332 333 333 332 331 332 331 331 331 330 329 327 326 328 329 329 330 330 330 330 330 330 329 329 328 327 327 327 327 325 323 323 323 321
327 328 328 329 329 329 329 329 329 328 328 328 329 330 331 331 329 328 328 327 327 329 329 328 329 330 330 331 332 333 333 333 331 330 331 331 330 330 330 329 327 327 328 329 329 330 330 330 330 329 329 329 328 327 326 326 326 324 322 320 320 321 318
326 327 327 327 328 328 329 329 329 328 329 329 329 330 330 331 330 329 328 327 327 329 329 327 327 328 329 331 333 333 333 332 330 329 330 329 327 328 330 330 330 329 330 330 329 329 330 330 330 329 328 328 327 326 326 326 324 320 320 319 318 319 317
324 325 326 326 326 327 327 328 329 329 328 328 329 330 330 331 331 330 329 328 327 328 328 325 323 325 328 329 331 332 333 332 330 329 329 327 326 328 330 331 330 331 331 330 330 330 330 330 330 329 328 327 326 326 326 326 324 321 320 320 319 319 319
322 323 324 324 325 326 327 327 328 328 329 328 329 330 330 331 331 330 329 328 326 326 327 324 322 322 325 329 331 331 332 331 329 327 326 326 328 330 331 331 330 331 331 330 330 330 330 330 330 329 328 327 325 325 326 326 325 323 321 320 320 320 319
321 321 321 322 323 324 326 327 327 328 328 328 329 329 330 330 330 330 329 328 326 326 326 325 323 322 322 327 331 331 331 331 329 326 325 327 330 331 330 331 331 330 331 330 330 330 330 330 330 329 329 328 326 325 326 325 324 324 322 322 321 321 320
320 320 320 321 321 323 324 325 326 327 327 328 328 329 329 330 330 329 329 328 327 327 327 323 323 323 321 323 329 331 331 332 330 328 328 329 331 331 330 330 330 330 330 330 330 331 331 330 330 330 329 328 328 327 325 325 325 324 323 323 322 322 321
318 319 320 320 320 321 322 323 325 326 326 327 328 328 329 329 329 328 329 329 328 328 327 323 322 324 322 321 327 331 330 331 331 330 331 331 330 331 330 329 330 330 329 328 328 330 330 329 329 329 327 326 327 327 324 324 325 325 324 324 324 323 323
316 317 318 320 320 321 322 323 324 325 326 327 327 328 328 329 329 328 328 329 329 329 328 325 323 326 323 322 326 329 329 330 330 330 330 330 330 330 329 329 329 328 327 326 326 327 327 326 327 327 326 323 323 324 325 326 325 324 325 325 324 324 324
315 316 317 319 321 322 322 323 323 324 325 326 326 327 328 328 329 329 327 327 329 329 329 326 325 327 326 324 325 327 327 327 327 327 327 327 328 330 329 329 329 326 324 325 325 325 326 326 325 325 325 323 320 321 324 326 326 326 325 324 324 325 324
315 315 316 318 320 321 322 322 323 323 324 325 325 326 326 327 327 328 328 328 328 329 329 327 326 327 327 326 325 325 326 325 324 325 324 324 326 328 327 328 328 326 324 325 325 325 325 326 326 325 325 324 322 321 321 322 324 325 325 324 324 324 323
314 315 316 317 318 320 321 322 322 323 323 324 324 325 325 325 326 326 327 328 328 328 328 328 326 326 327 327 325 323 324 325 323 323 324 323 324 325 325 324 324 322 321 323 325 326 326 326 326 326 326 325 324 323 321 320 322 322 322 323 324 322 322
312 313 314 315 316 317 319 320 321 322 322 323 323 324 324 324 324 324 325 326 327 327 328 327 326 325 327 327 324 321 322 322 322 324 324 324 324 325 324 323 323 321 320 322 325 326 326 326 326 325 325 324 324 322 320 321 323 321 320 322 323 322 320
311 311 312 313 314 315 316 317 318 319 320 320 321 321 322 323 323 324 324 324 325 327 328 327 325 325 326 326 323 322 321 322 323 325 325 324 324 324 323 323 323 322 322 323 325 326 326 325 325 324 323 323 323 323 322 322 322 319 318 320 322 321 319
311 311 311 312 313 313 314 314 315 316 317 317 318 319 320 321 322 323 323 323 324 326 327 327 325 325 325 324 323 323 322 322 323 324 323 323 323 323 322 321 321 322 324 325 325 326 326 325 324 323 321 320 320 321 321 320 318 317 317 318 319 319 318
311 310 311 311 311 312 312 313 313 314 314 315 316 316 317 318 319 320 321 322 323 325 326 327 326 325 325 324 323 323 322 322 322 322 322 322 322 322 321 319 321 323 324 325 325 325 325 324 322 320 318 318 318 318 318 317 317 317 318 318 318 318 318
310 310 310 310 310 310 311 311 312 312 313 313 313 314 314 315 315 317 318 320 321 322 324 326 325 324 324 324 323 322 321 321 321 321 321 321 322 322 320 319 321 324 324 324 325 324 322 320 319 318 318 318 317 317 317 317 317 317 317 317 317 316 315
310 310 309 309 309 310 310 310 311 311 311 311 311 312 313 314 314 315 316 317 318 318 320 323 322 322 322 322 321 321 320 320 320 321 321 321 321 321 321 321 322 323 323 322 322 321 319 318 318 318 318 317 317 317 318 317 317 317 316 315 314 313 313
309 309 308 308 308 309 309 309 310 310 311 311 311 311 312 313 314 315 315 316 317 318 319 320 319 318 319 319 320 320 320 318 319 319 319 320 320 321 322 322 322 321 320 320 319 318 318 318 318 318 318 317 316 317 318 317 317 316 315 314 314 313 313
306 307 307 307 307 307 307 307 308 309 309 309 310 311 311 312 312 314 315 315 316 317 318 318 317 316 319 320 319 320 319 317 317 318 318 318 319 321 322 321 320 319 318 318 318 318 319 318 318 317 317 316 315 316 317 317 316 315 314 313 313 312 311
304 304 305 306 306 306 306 305 306 306 307 307 308 309 309 309 310 311 312 313 315 316 317 317 317 318 319 319 318 318 318 317 317 318 318 318 320 321 321 320 319 318 318 318 318 318 318 318 317 317 316 316 316 316 316 314 313 313 312 311 310 309 308
303 303 303 303 303 304 304 304 304 304 305 306 306 307 307 307 308 309 310 311 313 315 315 316 316 317 318 317 317 317 317 318 318 318 319 319 319 319 319 318 318 317 317 318 318 318 318 317 316 315 315 315 314 313 313 312 311 310 309 308 307 306 305
303 302 302 301 300 301 302 302 301 302 302 303 305 305 306 306 306 307 308 308 309 310 312 313 313 315 316 316 317 317 317 318 318 318 318 318 317 317 316 316 317 317 317 318 318 317 317 316 314 313 314 313 311 310 310 309 308 308 307 305 304 303 303

ECMWFFLT1_850_thetae_087.txt.gz
Theta_e
335 335 334 333 332 332 332 331 331 332 332 332 331 330 332 332 331 331 331 331 330 329 330 331 331 330 331 333 333 331 330 329 329 330 331 331 330 330 330 330 330 331 331 330 330 331 331 331 331 331 330 329 328 328 328 329 329 327 327 328 327 327 328
334 334 333 333 332 331 330 330 331 333 332 332 331 331 332 332 332 332 332 332 331 330 330 331 331 330 330 331 331 330 330 329 328 329 330 331 330 330 330 330 330 332 331 331 332 331 330 330 331 331 331 330 329 328 328 329 329 328 328 328 327 327 328
334 332 332 332 331 330 330 329 331 332 332 331 332 331 331 331 331 331 331 332 332 331 331 331 331 331 331 331 330 329 330 329 329 329 329 330 330 330 331 330 330 331 331 332 333 332 331 330 331 331 331 329 328 329 329 329 328 328 328 328 327 328 328
334 333 332 332 330 329 330 331 330 330 329 330 330 330 329 329 329 329 330 331 331 331 331 331 331 331 331 331 330 328 329 329 329 328 329 330 331 331 332 331 331 331 332 333 333 332 331 331 330 331 331 330 329 329 329 328 328 328 328 329 328 328 328
334 334 332 332 332 329 330 331 329 327 327 326 325 326 326 328 328 328 329 329 330 331 331 331 332 331 331 331 330 329 329 329 328 328 328 329 331 332 332 331 331 332 332 333 333 332 331 331 330 330 330 330 330 329 329 329 329 329 329 329 328 328 328
334 334 333 331 332 331 331 331 328 326 326 324 323 324 324 326 326 327 328 329 329 329 330 331 331 331 331 331 331 330 329 329 329 327 328 328 329 330 332 331 332 332 331 332 332 331 331 330 330 330 329 329 330 329 330 329 329 329 329 329 329 328 328
334 334 333 332 331 332 333 331 328 326 325 324 323 324 324 324 325 326 326 327 328 329 329 331 331 331 331 332 332 330 329 330 329 328 328 329 329 330 332 331 331 331 330 331 330 330 331 330 329 330 329 329 329 329 330 329 329 329 328 329 329 328 328
331 332 333 332 331 332 331 330 329 328 326 324 324 324 324 324 325 326 326 327 328 328 328 329 330 331 331 331 332 332 331 330 330 329 329 330 330 330 332 330 329 330 330 331 330 330 331 331 329 329 329 329 329 329 329 328 329 329 328 328 328 328 328
329 330 332 332 331 331 331 330 329 329 328 326 325 324 324 324 325 326 327 329 330 329 327 328 330 331 330 329 331 332 331 330 330 330 330 330 330 330 331 330 329 329 330 331 330 330 331 330 329 328 329 329 329 329 329 328 329 329 328 329 328 328 327
328 329 331 331 330 331 331 331 330 330 330 328 327 327 326 326 326 326 327 330 331 330 329 330 330 330 329 329 330 330 331 331 330 330 330 330 331 330 330 330 328 328 329 330 330 329 329 328 329 329 329 329 329 329 329 328 329 328 328 329 328 328 327
327 329 329 330 330 330 330 330 329 329 329 328 330 330 329 328 328 327 328 331 332 331 331 331 331 330 330 329 329 328 330 331 330 330 330 331 331 330 330 330 328 327 329 330 330 329 328 327 329 329 328 329 329 328 328 328 329 328 327 328 327 327 327
327 328 329 329 330 329 329 329 329 329 329 329 330 330 329 329 330 330 330 332 333 332 331 331 330 330 330 329 329 328 329 331 330 330 331 331 331 330 330 330 328 327 329 330 329 329 329 328 328 329 328 328 328 328 328 328 329 329 327 327 327 327 327
326 328 328 328 329 328 328 328 327 328 328 328 329 329 330 330 330 331 331 332 333 331 330 330 329 329 328 327 329 330 329 330 330 330 330 331 331 330 330 328 327 327 328 328 328 327 327 327 327 328 329 328 328 328 328 327 328 328 328 328 327 327 327
326 327 328 329 329 328 328 327 326 325 326 327 329 329 330 332 331 331 331 332 332 331 331 330 328 327 326 326 328 328 329 329 330 330 330 331 331 330 329 328 327 328 328 327 327 324 325 326 326 327 328 329 328 328 328 328 327 326 327 328 326 326 326
324 325 326 327 328 328 328 328 327 327 327 328 329 329 330 331 332 332 332 332 331 331 331 329 328 327 326 325 326 326 328 330 330 331 331 331 331 330 329 329 329 330 329 328 327 325 325 326 326 327 328 329 328 329 329 329 327 325 326 328 326 326 326
323 323 324 325 326 327 327 328 328 328 329 329 330 329 328 329 331 332 331 331 331 332 332 330 328 327 326 325 324 325 328 329 329 330 331 331 331 330 329 330 329 330 331 329 328 327 327 327 326 327 328 329 328 329 330 329 327 326 327 328 326 326 326
321 321 322 323 324 324 325 327 327 327 328 329 329 329 328 328 330 331 329 329 330 332 332 330 328 328 327 325 325 326 328 327 327 328 329 330 331 330 330 330 329 329 329 328 328 327 326 325 326 327 328 329 328 329 329 328 327 327 327 326 325 324 325
320 321 321 321 321 322 323 324 325 326 327 328 329 329 329 329 330 330 329 328 329 330 331 330 329 329 328 326 325 325 326 325 325 327 328 330 331 330 330 329 329 328 327 327 327 325 325 326 327 329 329 328 328 328 329 328 326 325 325 324 323 322 322
319 319 320 320 320 320 321 321 323 324 326 327 328 329 329 329 330 329 329 328 328 329 330 330 330 330 330 328 325 324 325 325 326 326 327 329 331 331 330 328 327 327 326 326 326 325 327 328 329 329 328 328 328 327 328 328 325 323 323 322 320 320 319
317 317 318 319 320 320 320 320 321 322 325 327 327 328 329 329 330 329 329 329 328 328 329 330 331 331 331 329 326 325 325 325 326 327 326 328 330 330 329 327 326 326 326 326 327 327 328 329 329 329 328 328 328 328 327 327 325 322 322 321 319 320 319
316 316 316 317 318 319 320 321 321 322 324 326 326 327 328 328 329 329 329 329 329 328 328 329 330 330 330 330 326 324 325 325 326 327 326 327 328 329 328 326 326 327 327 328 328 328 328 328 328 328 327 327 326 327 327 327 325 323 322 321 321 321 320
315 315 315 316 317 318 320 321 322 322 323 325 326 327 327 327 328 328 329 329 329 329 328 328 328 328 329 330 326 324 325 326 327 326 326 326 327 326 326 326 327 329 328 328 328 328 327 327 327 326 326 327 326 326 327 326 325 324 323 322 322 321 321
314 314 314 314 315 317 319 320 321 321 323 324 326 326 326 327 328 328 329 329 329 329 328 327 327 327 328 328 326 324 325 326 327 327 326 327 326 324 325 326 327 328 328 329 328 329 328 327 326 325 326 327 326 326 326 325 325 324 323 323 323 323 322
313 313 313 313 313 315 317 319 320 321 322 323 324 325 325 326 327 328 328 328 329 329 328 327 326 327 327 326 325 325 324 324 327 327 326 327 327 326 326 327 326 325 328 329 326 326 327 326 325 323 323 326 327 326 326 325 325 325 324 323 324 324 323
312 312 312 312 312 314 315 317 319 320 321 322 322 323 324 324 325 326 327 327 328 329 328 327 326 327 327 326 324 325 324 323 325 327 327 328 328 328 328 328 327 326 328 328 325 322 323 325 326 323 323 326 326 325 325 325 324 325 325 324 323 323 323
312 311 311 311 312 313 314 315 316 318 319 320 321 322 323 323 324 325 326 326 327 327 328 327 327 326 327 327 325 325 325 324 324 326 328 329 328 329 329 328 327 327 328 327 325 323 323 324 326 325 324 326 326 325 325 323 322 324 326 324 323 322 322
311 311 311 311 311 312 313 314 315 315 316 317 318 320 321 322 323 324 324 324 325 325 326 327 327 327 327 328 326 325 326 325 324 325 328 328 328 328 329 327 327 327 327 325 324 325 325 325 325 325 325 326 326 326 325 324 323 324 325 324 323 323 322
310 310 310 310 311 312 313 313 313 313 314 314 315 316 317 319 320 321 322 323 323 324 324 325 326 327 328 328 327 326 326 325 324 324 326 328 328 327 326 325 325 325 325 324 323 324 326 326 325 326 326 326 326 326 325 324 324 324 324 322 321 321 321
310 310 310 310 310 311 312 312 312 312 312 312 313 313 314 315 316 317 319 320 321 322 323 323 324 325 326 328 328 327 326 325 324 324 326 327 327 326 326 325 325 324 325 324 323 323 325 326 326 326 326 326 326 326 324 324 324 324 323 321 321 320 320
309 309 309 309 309 309 310 311 311 311 311 312 312 313 313 314 314 315 315 316 318 319 321 322 323 324 325 327 327 326 326 325 323 322 325 327 326 326 326 325 324 324 325 324 324 324 325 325 326 326 326 326 326 325 323 322 324 324 324 323 322 322 322
308 308 308 308 308 308 308 308 309 310 310 311 311 311 312 312 313 313 313 314 315 316 318 319 321 322 324 326 326 325 326 325 322 321 324 327 326 325 324 322 322 323 323 322 323 324 325 325 325 325 325 325 325 324 320 320 322 324 323 323 323 323 323
307 307 307 307 307 307 307 306 307 308 309 309 310 310 311 311 311 311 311 312 313 314 315 317 318 320 322 324 324 324 323 322 322 324 325 324 323 322 322 322 322 322 321 321 322 324 326 325 324 323 322 322 322 321 318 318 321 321 321 321 322 321 322
305 305 306 306 306 306 306 306 306 306 306 307 308 309 309 310 310 310 310 311 312 313 314 316 317 318 319 320 322 322 320 319 322 324 323 322 321 321 321 322 322 322 321 321 323 324 324 323 322 322 321 319 318 317 317 317 318 318 319 320 319 318 317
302 302 304 305 305 305 305 305 305 305 305 305 306 307 308 308 308 308 309 309 311 312 313 315 316 317 317 318 320 321 319 319 321 321 320 320 320 321 321 321 322 322 322 322 322 323 322 321 320 321 320 318 317 317 316 316 316 317 318 318 317 315 314
301 301 301 303 303 303 303 304 303 303 304 304 304 305 306 306 306 306 307 307 308 309 311 313 314 316 316 316 317 318 318 318 318 318 318 319 318 318 319 319 321 322 321 320 320 320 319 318 318 318 318 318 317 316 317 316 316 317 316 315 314 313 312
302 302 301 301 301 300 301 302 302 302 303 303 303 303 303 304 304 304 305 305 306 306 307 309 311 314 315 315 316 317 317 317 317 317 317 318 318 318 318 318 320 320 319 318 318 318 317 318 318 317 317 317 316 316 317 317 316 315 314 312 311 310 310
302 302 302 302 301 300 300 300 301 301 302 302 302 302 301 301 302 302 303 304 304 305 305 306 307 309 311 313 315 316 316 317 317 317 317 318 318 318 318 318 319 318 317 317 317 317 318 317 317 317 316 316 316 316 316 316 315 313 312 311 310 309 308

ECMWFFLT1_850_thetae_093.txt.gz
Theta_e
336 335 336 336 337 336 336 335 334 333 331 331 331 331 331 332 333 333 332 332 332 331 330 329 329 329 328 327 327 329 330 331 330 329 329 330 331 330 330 331 331 329 329 331 330 330 330 330 331 331 331 331 331 331 330 329 329 329 328 328 328 328 327
335 336 336 336 336 336 336 336 335 334 332 331 331 331 330 331 332 333 332 332 332 331 330 329 329 329 327 327 327 328 330 331 330 329 328 330 331 331 330 330 331 330 330 331 331 330 330 331 330 330 330 331 331 331 330 329 329 328 328 328 329 328 327
335 335 335 335 335 335 335 335 334 333 333 332 332 331 330 330 331 332 332 332 332 331 331 330 330 330 328 328 328 329 330 331 330 329 329 330 330 330 330 330 330 330 331 331 331 331 331 331 331 331 330 330 330 330 330 329 329 328 328 328 329 328 327
334 335 335 334 334 335 334 333 333 333 333 333 333 331 330 329 330 331 331 331 331 331 331 332 331 330 329 330 330 330 330 331 330 330 330 330 330 330 330 329 329 330 330 330 330 330 330 331 331 331 331 330 330 330 330 329 329 328 328 328 328 328 328
332 334 334 333 333 333 333 333 333 333 332 332 333 332 330 329 329 329 330 331 331 331 331 331 332 330 329 330 330 330 331 331 332 331 330 330 331 330 329 328 328 330 330 329 328 329 330 330 331 330 331 331 331 331 330 329 329 328 328 328 327 328 328
331 332 332 332 332 331 331 331 332 332 332 331 331 332 331 331 329 329 329 329 330 330 329 329 330 330 330 330 330 330 330 331 332 332 332 330 331 330 329 328 328 329 330 330 329 329 329 331 331 330 330 330 330 330 330 329 329 329 328 328 327 328 328
326 327 328 329 329 329 329 330 330 330 330 330 330 330 331 331 330 330 329 329 328 328 328 328 328 329 330 329 329 330 329 330 330 332 332 331 331 331 330 329 329 329 329 329 329 329 329 330 330 330 330 330 330 331 331 330 329 328 329 329 328 328 328
325 324 325 326 327 328 329 329 329 329 329 329 329 330 330 330 330 329 329 329 329 327 326 327 327 329 329 329 329 330 330 330 330 331 331 331 331 331 331 330 329 328 328 328 328 329 329 329 330 330 330 329 330 330 330 330 329 328 328 328 328 328 328
324 324 324 324 325 327 328 329 330 329 329 329 328 329 330 329 330 330 329 328 328 328 327 328 328 328 329 329 330 330 329 329 330 331 330 331 331 331 330 329 328 329 328 328 329 329 329 329 330 330 329 329 329 329 330 331 330 329 328 329 329 328 328
323 324 323 323 324 326 327 328 329 329 329 328 328 328 328 328 329 329 328 328 328 328 328 328 328 328 329 329 329 330 329 329 329 330 330 331 332 331 330 329 328 329 328 328 329 330 330 330 330 330 329 328 328 329 330 331 330 329 329 329 329 329 328
321 322 322 323 324 324 326 327 327 328 329 329 328 328 327 327 327 327 327 326 326 327 327 328 328 329 329 329 330 331 330 329 330 330 330 331 332 332 330 329 328 328 328 328 329 330 330 331 330 330 329 328 328 329 329 330 330 330 329 329 329 329 329
319 320 320 320 322 323 323 325 326 327 327 328 328 328 328 328 327 327 327 326 326 326 326 327 327 327 328 329 330 331 330 330 330 330 330 331 331 332 331 330 329 329 328 328 328 329 331 331 330 330 329 328 328 329 329 329 330 329 329 329 329 328 328
319 319 318 318 319 320 321 322 324 325 325 325 326 327 328 328 328 327 327 327 327 327 326 327 327 326 326 328 329 330 330 330 330 330 330 330 330 331 331 330 330 330 329 328 328 329 330 330 331 330 328 328 328 328 329 329 329 329 329 329 329 328 328
318 317 317 317 317 318 319 319 321 322 323 323 324 325 326 327 328 328 328 327 328 327 327 326 326 327 328 328 330 330 330 330 330 330 330 330 330 330 331 331 330 331 330 329 328 329 330 330 330 330 328 328 329 329 329 329 329 329 329 328 328 328 328
316 315 315 316 316 316 317 318 319 320 321 321 322 323 324 326 327 327 328 328 328 328 327 326 326 327 328 328 328 329 330 331 330 329 330 330 329 329 330 330 330 330 330 329 329 329 330 330 330 330 330 328 329 329 329 329 329 329 328 328 328 328 328
315 314 314 315 315 316 316 318 318 318 319 320 320 321 323 325 325 326 327 328 328 329 328 327 327 328 328 328 328 327 328 330 330 329 329 329 329 329 330 330 330 330 329 329 328 329 329 330 330 329 329 329 329 329 329 329 329 328 329 329 328 328 328
314 314 314 315 315 316 317 317 318 318 317 318 319 320 321 324 324 325 326 327 328 328 328 328 328 329 329 329 329 327 327 328 329 329 328 327 328 328 329 329 329 329 330 329 329 328 329 329 329 328 328 328 329 329 328 328 328 327 328 329 328 328 328
313 314 314 315 315 316 316 317 317 317 316 316 317 318 319 321 323 324 325 326 327 328 328 328 328 329 329 329 329 329 328 327 328 329 328 327 326 327 328 328 327 329 330 330 329 329 329 328 327 326 325 325 326 328 329 328 327 327 327 327 327 327 327
312 312 313 314 314 315 315 316 316 316 315 315 315 316 317 319 321 322 324 325 326 327 327 328 328 328 328 328 328 329 329 329 328 328 327 326 326 326 326 327 328 329 329 329 328 328 328 328 327 326 325 325 326 328 329 328 328 328 328 327 327 327 327
311 311 311 312 313 313 314 314 314 314 314 314 314 315 316 317 319 320 322 324 325 325 326 326 327 328 328 328 328 328 328 329 329 328 327 327 327 327 326 327 329 329 330 329 328 327 327 328 327 327 326 325 326 326 327 327 328 328 328 327 327 327 326
309 309 310 311 311 312 312 313 313 313 313 313 314 315 315 316 317 319 320 322 322 323 324 325 326 327 328 328 328 328 328 328 329 329 328 327 328 327 327 327 328 329 329 329 329 328 327 327 327 329 327 325 325 326 326 327 328 328 327 327 327 326 326
308 308 309 310 310 311 311 311 312 312 312 312 313 314 315 315 316 317 318 320 321 322 322 323 324 325 326 327 327 327 328 329 328 328 328 328 328 327 327 327 327 327 328 329 329 329 328 328 328 328 328 327 327 328 327 328 329 328 327 327 326 326 326
308 308 308 308 308 309 310 310 311 311 311 311 311 312 313 314 314 315 316 318 319 320 320 321 322 322 323 325 326 327 328 329 328 328 328 328 328 328 327 327 327 327 327 329 329 329 329 329 328 328 327 326 327 328 327 328 328 328 328 327 325 326 326
307 307 306 306 306 307 307 308 309 309 309 310 310 310 311 312 313 313 314 315 316 317 318 319 320 321 322 323 324 325 327 328 328 328 327 327 328 329 327 326 326 328 329 328 328 328 328 328 327 327 326 325 326 327 326 327 327 328 328 327 326 326 325
306 306 306 305 305 305 305 306 307 307 308 308 308 308 309 309 310 311 311 313 314 315 317 318 319 320 321 321 322 323 325 327 327 327 327 327 327 328 328 326 326 327 328 328 327 327 327 326 325 325 326 326 327 328 328 327 327 327 327 326 326 326 326
306 306 305 305 304 304 304 304 305 305 306 307 307 307 307 307 308 308 309 310 311 313 315 316 318 318 319 320 321 322 323 325 326 326 327 327 327 327 327 327 326 326 327 328 327 326 326 327 326 326 327 327 328 329 329 328 327 327 326 325 325 325 326
305 305 305 304 304 303 303 303 303 303 304 305 306 306 306 306 306 307 307 308 308 310 312 314 316 317 318 319 320 321 322 323 324 325 326 327 327 327 326 326 325 324 325 326 327 327 326 327 327 327 327 327 328 328 328 328 328 327 326 325 324 324 325
303 303 303 303 303 303 303 302 302 302 302 303 303 304 304 304 305 306 306 307 307 308 309 311 314 316 317 318 319 320 321 322 323 324 324 325 326 326 326 326 325 324 324 325 326 326 326 326 326 326 326 327 327 327 327 328 328 327 327 325 324 324 324
302 302 301 301 302 302 302 302 302 301 301 301 302 302 302 302 303 304 305 306 307 307 308 309 312 314 316 317 318 319 321 322 323 323 323 323 325 326 326 326 326 325 325 325 326 327 327 327 326 326 326 327 327 327 327 328 328 327 327 326 325 325 324
301 300 299 300 301 302 302 302 301 300 300 300 300 300 301 301 302 303 304 304 305 306 307 307 309 312 314 316 317 318 320 322 322 323 322 322 324 325 325 326 326 326 326 326 326 326 327 327 326 326 327 327 327 327 327 327 327 327 327 326 325 325 324
300 299 298 298 300 301 300 300 298 297 298 299 299 299 300 300 301 301 302 303 304 305 305 306 307 309 311 314 316 317 318 319 320 321 321 321 322 323 325 325 325 325 326 326 326 326 326 326 326 326 326 326 326 326 327 327 327 327 327 326 325 325 324
300 299 298 297 297 298 298 297 297 296 296 297 297 298 298 299 300 300 301 301 302 303 304 305 306 307 309 312 314 315 316 317 318 318 319 320 321 322 324 324 324 326 326 326 326 326 326 326 324 323 324 325 325 326 326 325 326 326 326 326 325 325 324
300 300 299 298 297 297 297 297 297 297 296 296 296 296 296 298 299 300 300 300 301 302 303 303 304 305 307 309 311 313 315 316 316 316 317 318 319 321 323 324 324 325 325 325 325 324 324 324 323 324 324 324 325 325 325 325 324 324 323 324 325 324 324
300 300 299 299 298 297 297 297 297 297 296 296 296 296 296 296 297 299 299 300 300 301 302 302 303 304 305 306 308 309 311 313 314 314 316 316 317 319 321 324 324 324 323 323 322 321 320 320 321 322 323 323 323 323 324 324 323 321 321 323 323 323 323
300 300 299 299 298 298 297 297 297 297 297 296 296 296 296 295 296 297 299 299 300 300 300 301 302 302 303 304 305 306 308 308 309 311 314 316 316 317 318 321 322 323 323 323 322 321 319 318 319 319 319 320 322 321 321 322 322 320 320 321 321 321 321
300 300 299 299 298 298 297 297 297 297 297 296 296 295 295 295 295 296 297 298 299 300 300 300 301 301 302 303 303 304 305 306 307 308 310 312 313 314 316 317 318 320 321 321 322 322 319 318 318 318 317 319 321 319 319 320 320 319 319 319 319 319 318
300 300 299 299 298 298 297 297 297 297 297 296 296 295 295 295 295 295 296 297 298 299 300 300 300 300 301 301 302 302 303 304 305 306 307 307 308 310 312 313 314 316 318 319 320 320 320 319 319 319 318 318 317 317 317 318 317 317 318 317 317 317 316

ECMWFFLT1_850_thetae_096.txt.gz
Theta_e
334 334 335 334 334 335 335 335 334 334 333 333 332 332 332 331 331 331 330 331 332 332 332 332 332 332 331 330 330 330 331 331 331 332 332 332 332 332 331 330 331 331 330 330 330 329 329 330 330 330 330 330 331 330 330 330 330 330 329 328 328 327 326
334 334 334 334 335 335 335 334 334 334 333 332 332 332 332 332 330 330 329 330 330 331 331 332 332 331 330 329 329 330 329 329 329 330 331 332 331 332 332 331 330 331 331 331 330 330 329 329 329 329 330 330 330 330 330 331 331 330 329 328 328 328 327
334 334 334 334 335 335 334 334 334 333 332 332 332 332 332 332 331 329 329 329 329 329 330 331 331 331 331 331 330 330 329 329 329 330 331 331 331 332 332 332 331 330 331 331 331 330 329 329 330 330 330 330 330 330 330 331 330 330 329 328 328 328 327
332 332 332 333 334 334 333 333 332 331 331 331 331 331 331 331 331 330 330 329 328 328 328 329 330 330 330 331 331 330 330 330 330 330 330 331 331 331 332 331 331 331 331 331 331 331 330 329 329 330 330 330 329 329 329 330 330 330 329 329 328 328 327
330 330 330 330 331 332 330 328 328 329 329 329 330 329 329 329 330 331 330 329 328 327 327 327 328 327 327 327 328 327 328 328 329 329 329 329 329 330 330 330 331 332 331 331 331 331 330 328 328 329 330 330 330 330 329 330 330 330 330 329 328 328 328
329 328 328 328 330 330 327 326 327 328 328 329 328 328 329 329 329 330 330 330 329 328 328 327 327 326 325 325 326 326 326 326 327 328 329 329 329 330 330 330 330 331 332 331 331 330 329 328 328 330 330 330 330 330 330 330 330 330 330 329 328 327 328
327 326 326 326 328 327 325 326 327 328 329 328 328 328 328 328 329 329 330 329 329 328 328 327 327 327 327 327 327 327 327 326 327 328 329 330 330 330 330 330 330 330 331 332 331 331 329 329 329 330 330 330 330 330 330 330 330 330 330 329 328 327 328
325 325 324 325 325 324 324 325 326 327 328 328 327 327 327 328 328 328 329 329 329 328 327 327 327 327 327 328 328 328 328 328 328 329 329 330 330 331 331 331 330 330 330 331 331 331 330 330 329 329 330 330 330 330 330 330 330 330 329 329 328 327 327
323 324 324 323 323 323 325 325 324 326 327 327 327 327 327 327 327 327 327 328 327 327 327 327 327 327 328 328 328 328 328 329 329 329 329 330 330 330 331 331 331 331 330 330 331 330 330 330 330 329 329 330 330 330 330 330 330 330 329 329 328 328 327
321 322 322 322 323 323 324 324 323 324 326 326 327 327 327 327 327 327 327 327 327 327 327 327 327 327 328 328 328 328 328 328 329 329 330 330 329 330 331 331 331 332 331 330 331 331 331 331 330 330 330 330 330 330 330 329 329 329 329 329 328 328 328
319 319 320 320 321 322 322 322 323 323 323 324 326 327 327 327 327 328 328 328 328 328 328 328 328 328 328 327 327 327 328 328 329 329 329 330 329 330 330 330 331 331 331 330 330 330 330 331 331 330 330 330 330 330 330 330 329 329 329 328 328 328 328
317 317 317 318 318 319 320 320 321 321 322 322 324 325 326 327 326 326 327 327 328 328 328 328 328 328 327 327 327 326 327 328 329 329 329 329 329 330 331 331 331 331 332 331 330 330 329 330 331 331 330 330 330 331 331 330 329 328 328 328 328 328 327
315 315 315 316 316 317 318 318 318 319 320 321 322 323 324 324 324 324 324 325 326 327 328 328 328 328 327 326 326 327 327 328 329 329 329 329 329 330 331 331 331 331 332 332 331 329 329 330 331 331 330 331 331 331 330 329 329 328 328 328 328 328 327
314 315 315 315 315 316 316 316 317 317 318 319 320 321 322 322 322 322 323 324 325 326 327 327 327 327 327 327 328 329 328 328 328 329 329 329 329 329 330 331 331 330 331 331 331 330 329 329 331 331 330 331 331 330 329 329 328 328 328 328 328 328 328
315 315 315 315 315 316 315 315 316 316 317 318 319 320 320 320 320 321 322 323 324 325 326 326 326 326 327 327 328 328 328 328 328 329 329 329 328 328 329 330 330 330 330 331 330 330 329 329 331 331 330 331 331 330 329 329 328 328 328 328 328 329 329
315 314 314 315 315 315 315 316 316 317 317 317 318 318 319 319 319 320 322 323 322 323 324 324 325 326 326 326 327 326 327 327 327 328 329 329 329 329 329 329 329 330 330 330 330 330 330 330 330 330 330 330 330 330 329 329 328 328 328 328 328 328 329
314 314 314 315 315 315 315 315 316 316 316 316 316 317 317 317 317 318 320 320 321 322 322 323 324 324 325 326 326 326 326 326 326 327 328 328 329 329 329 329 328 329 330 330 330 330 330 330 330 330 330 330 330 330 329 329 328 328 328 327 328 328 327
313 313 314 314 314 314 314 315 315 315 315 315 315 315 315 316 316 317 318 319 319 320 321 322 323 324 324 325 326 326 326 327 327 327 327 327 328 329 329 328 327 328 329 330 329 329 330 330 329 329 329 329 330 330 330 329 329 328 328 327 327 327 327
312 313 313 313 313 313 313 313 313 314 314 314 314 314 314 315 315 316 317 317 318 318 319 320 321 322 323 325 325 326 327 328 327 327 327 327 328 328 329 328 327 327 328 329 329 329 329 329 329 329 328 329 330 330 330 329 329 329 328 327 327 327 327
310 311 311 311 311 311 312 312 312 312 313 313 314 314 314 314 314 315 315 316 317 317 318 318 319 321 322 323 324 325 326 327 328 327 327 327 327 327 328 328 327 326 327 328 329 330 329 329 330 330 329 329 330 330 329 329 329 329 328 328 327 327 327
308 309 309 310 310 310 310 310 310 311 311 312 312 312 313 313 313 314 314 315 315 316 316 317 319 320 321 322 323 323 324 326 326 327 327 327 327 328 327 327 326 326 326 327 329 330 330 330 330 330 330 330 330 329 328 328 329 329 328 328 327 327 327
306 306 307 308 308 309 309 309 309 309 310 310 310 311 311 311 312 312 313 313 314 315 316 316 317 318 319 320 321 322 322 323 324 325 326 327 327 327 327 327 326 327 327 328 329 330 330 330 330 330 329 330 329 328 327 328 329 329 329 329 329 328 327
305 305 305 305 306 306 307 307 308 309 309 309 309 309 309 310 310 310 311 311 312 313 314 315 316 317 318 318 319 320 321 321 322 324 325 326 326 327 327 328 327 326 327 327 327 328 329 330 330 330 329 330 330 329 329 328 328 328 328 328 328 328 328
304 304 304 304 304 304 304 305 306 307 307 308 308 308 308 308 309 309 309 309 310 311 312 313 315 316 317 317 318 319 319 320 321 322 323 324 326 327 327 327 327 326 325 325 325 325 327 327 328 330 330 330 329 329 329 329 329 329 328 328 328 328 328
303 303 303 303 303 303 303 303 303 305 305 306 306 307 307 307 307 307 308 308 309 309 310 311 313 315 316 317 317 318 320 320 321 322 322 323 325 326 326 327 326 326 325 324 324 324 325 326 327 329 330 329 329 328 328 329 329 329 328 328 328 328 328
301 302 302 303 302 301 301 301 301 302 303 304 304 305 305 305 306 306 307 307 307 308 309 309 311 313 315 316 317 318 320 321 321 322 322 323 324 325 326 326 326 326 326 325 324 324 325 326 327 327 328 329 328 328 328 327 327 327 328 328 328 328 327
301 301 301 301 300 299 299 299 300 301 302 302 303 303 303 304 304 305 305 306 306 307 307 308 309 311 313 315 317 318 319 321 321 321 322 322 323 324 324 325 326 326 326 325 325 324 325 325 327 327 328 328 328 328 327 326 326 327 328 328 328 327 327
300 300 299 299 298 298 298 298 298 299 300 301 301 301 302 302 303 303 304 305 305 306 306 307 308 309 311 313 315 317 318 319 320 320 321 321 322 323 323 324 325 326 327 326 325 325 325 325 326 327 327 327 328 328 327 327 327 328 329 328 327 327 326
298 298 297 298 298 298 298 297 297 298 298 299 300 300 300 301 301 302 302 303 304 304 305 305 307 308 309 311 314 315 317 317 318 319 320 321 321 322 323 324 325 326 326 326 325 325 325 325 325 326 327 327 327 327 327 327 327 328 328 328 328 327 327
297 297 297 297 297 297 297 297 297 297 297 298 298 299 300 300 300 301 301 302 302 303 303 304 305 306 308 310 312 314 315 316 316 317 318 319 320 321 322 323 324 325 326 325 325 325 325 325 326 326 326 326 327 327 327 327 327 327 328 328 328 327 327
297 297 297 297 297 296 296 296 296 296 296 296 297 298 299 299 300 300 300 301 301 301 302 302 303 304 306 307 309 311 312 314 315 316 316 317 318 319 320 321 322 324 325 325 325 325 325 325 326 326 326 326 327 327 327 327 327 327 328 328 327 326 327
297 297 296 296 296 296 296 296 296 296 296 296 296 296 297 299 299 300 300 300 300 301 301 301 302 303 304 305 307 308 309 311 313 313 314 315 316 317 318 320 321 322 324 325 325 325 325 326 326 326 326 326 326 326 326 326 327 327 327 327 327 326 327
297 297 296 296 296 296 296 295 295 296 296 296 296 295 296 297 298 299 300 300 300 300 300 300 301 301 302 303 304 305 307 309 309 309 310 312 315 316 317 320 321 322 323 324 324 324 325 326 325 325 325 325 324 325 325 325 325 326 326 326 326 326 326
297 297 296 296 296 296 296 295 295 295 295 296 296 296 295 295 296 297 298 299 300 300 300 300 300 300 301 302 303 303 304 305 306 306 308 310 312 313 315 317 319 321 323 323 323 323 324 324 323 324 324 323 323 323 323 323 323 324 323 323 324 325 325
298 297 297 296 296 296 296 295 295 295 295 295 296 296 295 295 295 295 296 297 298 299 299 300 300 300 300 301 302 302 302 302 303 304 306 307 308 309 310 312 314 317 320 322 322 323 322 322 322 322 321 319 319 320 320 320 321 321 320 321 322 322 323
298 297 297 296 296 296 296 296 295 294 294 294 295 296 296 295 295 295 295 295 296 297 298 299 299 300 300 300 301 301 301 301 301 302 303 304 305 306 307 308 310 312 315 318 320 322 321 320 321 321 319 317 318 318 317 317 317 318 319 319 320 321 320
298 297 297 297 296 296 296 296 295 294 294 294 294 295 295 295 295 295 295 295 295 296 297 298 298 299 299 299 299 300 301 301 301 302 302 303 303 304 305 306 307 309 311 313 316 319 318 317 318 319 318 318 318 317 317 316 316 317 317 317 318 318 318

ECMWFFLT1_850_thetae_102.txt.gz
Theta_e
331 331 331 330 330 330 330 329 329 329 330 331 331 330 329 329 329 329 328 328 328 328 330 330 329 328 326 326 327 328 328 329 329 329 329 330 330 330 330 330 330 330 330 330 330 330 330 330 330 330 329 329 330 330 331 331 331 330 331 330 330 330 329
331 330 330 330 330 330 329 329 329 328 329 330 330 328 326 326 327 327 327 327 327 327 328 330 330 328 327 326 327 327 328 328 328 328 329 330 330 330 330 329 329 329 330 330 330 330 330 330 330 330 330 329 329 330 330 330 330 330 330 331 330 330 329
329 329 329 329 330 330 329 329 328 328 327 328 327 325 324 324 326 327 327 327 327 327 328 329 329 329 328 327 327 326 326 326 326 327 328 329 329 330 330 329 329 329 329 329 329 329 329 329 330 330 330 330 330 329 329 329 330 330 330 330 330 330 330
329 329 329 329 329 328 328 327 325 324 324 323 323 323 323 325 326 326 326 326 327 327 328 328 329 329 329 328 327 327 326 325 326 326 327 327 328 329 329 329 329 329 330 330 330 330 330 330 330 330 330 330 330 330 329 329 329 329 329 330 330 330 330
329 329 329 328 328 327 325 324 323 322 321 321 321 322 323 324 325 325 326 325 325 326 327 328 328 329 329 328 328 327 326 326 326 326 326 327 328 329 329 329 329 329 330 330 330 330 330 329 330 330 330 330 330 330 330 329 329 328 328 329 329 329 329
328 328 328 327 327 325 323 322 322 321 321 321 321 321 321 322 324 325 325 325 325 325 325 326 327 327 328 328 327 327 326 326 326 326 327 327 327 328 328 328 328 328 329 329 329 330 329 328 329 330 330 330 331 330 330 330 329 328 328 328 329 329 330
326 326 326 326 324 322 321 321 322 321 321 321 320 320 320 321 322 323 324 324 324 324 324 324 325 325 326 326 326 326 326 326 326 327 327 327 327 327 327 327 327 328 329 329 329 330 330 329 329 330 330 330 330 330 330 330 330 329 328 328 329 329 330
324 324 323 322 321 320 320 321 321 321 321 321 321 320 320 320 321 321 322 323 323 323 323 323 323 324 324 325 325 325 325 325 326 326 327 327 327 327 327 327 327 327 328 328 329 329 330 330 330 330 330 329 329 328 328 329 329 329 329 328 328 329 329
321 321 320 320 320 320 320 321 321 320 320 320 320 320 320 320 320 320 320 321 321 322 322 322 322 322 323 323 323 324 323 324 324 325 326 326 326 326 326 326 326 327 327 327 328 329 329 330 330 330 330 329 329 328 328 328 328 329 330 328 328 329 329
319 319 319 319 320 320 320 320 319 319 319 319 319 319 319 319 319 319 319 319 319 320 320 320 320 320 320 320 321 322 322 322 323 324 325 326 326 325 325 325 326 326 327 327 327 328 328 329 329 330 330 329 330 329 328 328 328 329 330 329 328 329 329
319 319 319 319 318 318 318 317 317 317 317 317 316 316 317 317 317 317 317 318 318 318 318 318 318 319 318 318 319 320 320 321 321 323 324 324 324 324 323 324 324 325 326 326 327 327 328 329 329 329 329 329 330 329 328 327 327 329 329 329 328 328 328
317 317 317 316 315 315 315 315 315 315 315 315 315 315 315 315 316 316 316 317 316 317 316 316 316 316 317 316 316 317 318 318 319 321 322 323 323 323 323 323 324 324 325 326 327 327 327 328 328 328 328 329 329 329 329 328 327 328 329 329 329 328 328
315 315 314 314 314 314 314 314 314 314 314 314 314 315 315 315 315 316 315 315 315 315 315 315 314 315 315 315 315 315 316 316 317 318 320 321 322 322 322 322 323 324 324 325 327 327 327 328 329 329 328 328 329 329 329 328 327 328 329 329 329 329 328
313 313 313 313 313 313 313 313 313 313 313 314 314 314 314 314 314 315 315 315 315 315 315 315 315 315 315 315 316 316 315 315 315 315 316 318 320 321 321 322 322 324 325 325 326 327 328 328 329 329 329 329 328 328 329 329 328 328 328 329 328 328 329
313 312 313 312 312 313 313 313 313 313 313 313 313 313 313 313 314 314 314 314 314 314 314 314 314 314 315 315 316 316 317 317 316 316 316 317 318 320 321 322 323 324 325 326 326 327 327 328 328 329 329 329 328 327 327 327 328 328 328 328 328 328 329
312 312 312 312 312 312 312 312 312 312 312 312 312 312 312 312 312 312 312 312 312 312 312 312 313 313 313 314 314 315 316 317 317 317 317 317 318 319 320 321 322 324 324 325 326 326 327 327 328 328 329 328 328 328 327 327 327 327 327 328 328 327 328
312 312 311 311 312 311 311 311 311 311 311 311 311 311 311 311 311 311 311 311 311 311 311 311 311 311 311 312 313 313 314 315 316 317 318 318 318 319 319 320 321 322 323 324 325 326 326 326 327 327 328 328 328 328 327 327 326 326 327 328 329 327 327
311 311 311 311 311 311 311 310 310 310 310 310 310 310 310 310 310 310 310 310 310 310 310 310 310 310 311 311 311 312 312 314 315 316 317 317 318 318 319 319 319 321 322 322 323 325 325 325 326 326 327 327 328 328 328 327 327 326 326 328 329 329 327
310 309 309 309 309 309 309 309 309 309 309 308 308 308 308 308 308 308 308 308 308 308 308 308 309 309 310 310 311 311 312 313 314 315 316 316 317 318 319 319 319 320 321 322 323 324 325 326 326 326 326 326 327 327 328 328 327 326 326 326 328 329 329
308 308 307 308 308 308 307 307 307 307 306 306 306 306 306 306 306 306 306 306 307 307 307 307 308 308 309 309 310 310 311 312 313 313 314 315 315 316 317 318 319 319 320 321 322 324 325 325 326 326 326 326 326 327 328 328 327 326 325 325 327 328 328
306 306 306 306 306 306 306 305 305 305 304 304 304 304 304 304 304 305 305 305 306 306 306 307 307 307 308 308 309 310 311 311 311 312 312 313 313 314 315 316 317 318 318 319 321 323 324 325 326 326 326 326 326 326 327 328 327 326 325 324 325 326 327
304 304 304 304 304 304 304 303 303 303 302 302 302 302 302 303 303 303 304 304 304 305 306 306 305 306 306 307 308 309 310 310 310 311 311 312 313 314 315 316 317 318 318 319 320 321 323 324 325 326 326 326 326 326 327 328 328 327 326 325 325 326 327
302 302 302 302 302 302 301 301 301 301 301 301 301 301 301 301 302 302 302 303 303 304 304 305 304 304 305 306 307 308 309 309 310 311 311 312 313 313 314 316 317 318 318 318 319 320 322 323 324 325 326 326 327 327 327 328 327 327 327 326 325 325 326
301 301 301 301 300 300 300 300 300 300 300 300 300 300 300 300 301 301 301 302 302 302 303 303 303 304 305 305 306 306 308 308 309 310 310 311 311 312 313 314 316 317 318 318 318 319 320 322 323 324 325 326 327 327 327 327 327 327 327 326 326 326 326
300 300 300 300 299 299 299 299 299 299 299 299 299 299 300 300 300 300 301 301 301 301 302 302 302 303 304 304 305 305 306 307 307 308 308 309 309 310 311 312 314 315 316 317 317 318 319 320 322 324 324 325 326 326 326 327 327 327 327 327 326 326 326
299 299 299 299 299 298 298 299 299 298 298 298 298 298 299 299 299 299 300 300 300 300 300 300 301 301 302 303 304 304 305 305 305 306 306 307 307 308 309 310 312 313 314 315 316 317 318 318 320 322 323 324 325 326 326 325 326 326 327 327 327 326 326
298 298 298 298 298 298 298 298 298 298 298 298 298 298 298 298 298 298 298 299 299 299 299 299 299 300 300 301 302 303 303 304 304 304 305 305 306 306 307 308 309 310 312 313 314 315 316 318 319 320 321 323 324 325 326 325 324 325 326 327 327 327 327
297 297 297 297 297 297 298 297 297 297 297 297 297 297 297 297 297 297 298 298 298 298 298 298 298 298 299 299 300 301 301 302 302 302 303 303 304 305 305 306 307 308 310 311 312 313 315 317 319 319 320 322 323 325 326 326 325 325 326 326 326 327 327
297 296 296 297 297 297 297 297 297 296 296 296 296 296 296 296 296 296 296 297 297 297 297 297 297 297 297 298 298 299 300 300 300 301 301 302 302 303 303 304 305 306 308 309 311 312 313 316 318 320 320 321 323 324 325 325 325 325 325 326 326 326 326
296 296 296 296 296 296 296 296 296 296 296 296 296 296 295 296 296 296 296 296 296 296 296 296 296 296 296 296 297 298 298 299 299 299 300 300 301 301 302 302 303 304 306 307 308 310 312 314 318 320 321 322 323 323 324 324 325 324 324 325 325 325 325
295 295 295 295 295 295 295 296 296 295 295 295 295 295 295 295 295 295 295 295 295 295 295 295 295 296 296 296 296 297 297 298 298 299 299 299 300 300 301 301 302 303 304 305 306 308 310 313 316 319 321 322 323 323 322 323 324 324 324 324 324 325 325
295 295 294 294 294 294 295 295 295 295 295 295 295 295 295 295 295 295 295 295 295 295 295 295 295 295 295 296 296 296 296 297 298 298 298 299 299 300 300 301 301 302 303 304 305 307 309 311 314 316 319 320 321 320 320 321 322 322 323 322 323 323 323
294 294 294 294 294 294 294 295 295 295 295 295 295 295 295 295 295 295 295 295 295 295 295 295 295 295 295 295 296 296 296 296 297 298 298 298 298 299 299 300 301 302 302 303 304 306 307 309 311 313 316 317 317 316 317 319 320 321 321 321 321 322 322
294 293 293 293 293 294 294 294 294 294 295 295 295 295 294 294 295 295 294 294 295 295 295 295 295 295 295 295 296 296 296 296 297 297 298 298 298 298 299 299 300 301 301 302 303 305 306 307 308 310 311 312 311 312 314 317 318 318 319 319 319 320 320
293 293 293 293 293 293 293 293 294 294 294 294 294 294 294 294 294 294 294 294 294 294 294 294 295 295 295 295 296 296 296 296 296 297 297 297 297 298 298 299 300 300 301 301 302 304 305 306 307 307 308 308 308 309 311 314 315 316 316 317 318 318 318
293 293 293 293 293 293 293 293 293 293 293 293 293 293 293 293 293 293 293 294 294 294 294 294 294 295 295 295 296 296 296 296 296 296 297 297 297 297 298 299 299 300 300 301 302 302 303 304 305 305 306 307 308 308 308 310 312 313 315 316 316 316 315
293 293 293 293 293 293 292 293 293 293 293 293 293 293 293 293 293 293 293 293 293 293 294 294 294 294 295 295 295 296 296 296 296 296 296 296 297 297 297 298 299 299 300 300 301 301 302 302 303 303 304 306 306 307 307 307 308 310 313 313 313 312 312

ECMWFFLT1_850_thetae_105.txt.gz
Theta_e
330 329 329 330 329 328 328 328 328 328 328 327 327 327 328 326 324 324 325 326 326 327 327 328 328 328 329 329 329 328 328 327 328 328 328 328 328 328 329 329 329 329 329 329 329 329 329 330 330 330 330 330 330 330 330 330 330 330 330 330 330 330 330
329 329 329 328 328 328 328 328 327 327 325 324 324 324 324 323 324 324 325 326 326 327 327 328 328 328 328 329 329 329 328 328 328 327 328 328 327 327 328 329 329 329 328 328 328 329 329 329 329 329 329 330 330 330 330 329 329 330 330 331 331 330 330
328 328 328 328 328 328 328 327 326 324 322 322 321 321 322 322 323 324 325 326 326 326 326 326 326 327 328 328 328 329 329 328 328 328 327 327 327 327 328 329 329 329 329 329 328 328 329 329 329 329 329 329 329 330 330 329 329 330 330 330 331 331 331
327 327 327 328 328 327 327 325 323 321 321 321 321 320 321 321 321 322 323 324 324 325 324 324 324 325 326 327 327 328 328 328 328 328 327 327 327 327 327 328 328 328 328 329 328 328 329 329 329 329 329 329 329 329 329 329 329 329 329 330 330 330 330
327 327 327 327 326 325 324 321 320 321 321 321 321 320 320 320 319 320 321 321 321 322 322 323 323 323 324 325 326 327 327 327 327 327 327 327 327 327 327 327 327 328 328 328 328 328 328 329 329 330 329 329 329 328 328 329 329 329 329 329 329 330 330
325 325 324 324 323 322 321 320 321 321 321 321 321 320 320 320 319 319 319 319 319 320 320 320 321 321 321 321 322 323 325 326 326 327 327 327 327 327 327 327 327 328 328 328 328 329 328 328 329 329 329 329 330 329 328 328 326 326 328 330 329 329 329
322 321 321 321 320 320 320 320 320 320 320 320 319 319 319 318 318 318 318 318 318 318 318 318 318 318 319 319 319 320 321 323 324 325 325 325 326 326 326 326 327 327 327 327 327 328 327 327 328 328 329 329 330 329 329 328 325 324 326 328 329 329 329
320 319 319 319 319 319 319 319 319 318 318 318 317 317 316 316 316 316 316 316 316 316 316 316 316 316 316 317 317 317 318 319 320 321 322 323 324 325 326 326 326 327 327 327 327 327 326 326 327 327 328 329 329 329 329 329 328 326 326 327 328 329 329
318 318 318 318 318 318 317 317 316 316 315 315 315 315 315 315 315 315 315 315 315 315 315 315 315 315 315 315 315 316 316 316 316 317 318 319 321 322 324 325 326 326 326 326 326 326 326 326 326 326 327 328 329 329 329 329 329 329 327 327 328 328 329
318 318 317 317 316 315 315 315 315 315 314 314 314 314 314 314 314 314 314 314 314 314 315 315 315 315 315 315 315 315 316 315 315 315 316 316 318 319 321 323 324 325 326 326 325 325 325 325 326 327 327 328 328 328 329 329 329 329 328 328 328 328 329
317 316 315 315 314 314 314 314 314 314 314 314 314 313 313 313 313 313 313 313 314 314 314 314 314 314 314 314 314 315 315 315 316 316 316 316 316 317 317 319 321 322 324 325 325 325 324 324 325 326 328 328 328 328 328 329 329 329 328 328 328 328 328
314 314 314 313 313 313 313 313 313 313 313 313 313 313 312 312 312 312 312 313 312 312 312 312 312 312 312 313 313 313 314 314 315 316 316 317 316 316 316 316 317 319 320 322 324 325 326 325 325 326 327 327 328 328 328 329 329 329 328 328 328 328 328
313 313 312 312 313 313 312 312 312 312 312 312 312 312 311 312 312 312 312 311 311 311 311 311 311 311 311 311 311 312 312 313 314 314 315 317 317 317 317 317 317 318 319 320 322 324 325 325 325 325 326 327 328 328 329 329 329 328 328 328 328 328 328
312 312 312 312 312 312 311 311 311 311 311 311 311 310 310 310 311 310 310 310 310 310 310 310 310 310 310 310 310 311 311 312 312 313 314 315 316 317 318 318 318 318 319 320 320 321 323 325 325 325 326 326 327 328 328 328 329 329 328 328 327 328 328
312 312 312 311 311 311 311 310 310 310 310 310 309 309 309 309 309 309 309 309 308 308 308 308 308 309 309 309 309 310 310 311 312 312 313 314 315 316 316 317 318 318 319 319 319 320 321 323 325 325 325 326 326 327 327 328 328 328 328 328 327 327 328
311 311 311 311 310 310 310 309 309 309 309 308 308 308 308 307 307 307 307 307 307 307 307 307 307 307 308 308 309 309 309 310 311 311 312 313 314 314 315 316 316 317 317 318 319 319 320 321 323 324 325 325 325 325 326 327 327 328 328 328 327 327 327
310 310 310 309 309 309 308 308 308 308 307 307 306 306 306 306 305 305 305 305 305 305 306 306 306 307 307 307 308 308 309 309 310 310 310 311 312 312 313 313 314 314 315 316 317 318 318 320 322 323 324 325 325 325 326 326 327 327 327 328 327 327 327
309 309 309 308 308 308 307 307 306 306 305 305 305 304 304 304 304 304 304 304 304 304 305 305 305 306 306 307 307 307 308 308 309 309 309 309 310 310 311 312 312 313 314 315 316 317 317 318 319 321 323 324 325 325 326 326 326 327 327 327 328 327 327
309 308 308 307 307 306 306 305 304 304 303 303 303 303 302 302 302 302 302 303 303 303 303 304 304 305 305 306 306 307 307 308 308 308 308 309 309 310 310 311 312 313 314 315 316 317 317 317 318 319 321 323 325 325 326 326 326 326 326 327 327 327 327
307 306 306 306 305 304 304 303 302 302 302 302 301 301 301 301 301 302 301 302 302 302 302 302 303 303 304 305 306 306 306 307 307 308 308 308 309 309 310 311 311 312 313 314 315 316 317 318 318 318 319 321 323 325 326 326 326 326 326 326 327 327 327
305 305 304 303 303 302 302 301 301 301 301 301 300 300 300 300 300 301 301 301 301 301 301 301 302 302 303 303 304 305 306 306 306 307 308 308 308 309 309 310 310 311 312 312 313 314 316 316 317 318 318 319 321 323 324 325 326 326 326 326 326 327 327
303 303 302 302 301 301 300 300 300 300 300 299 299 299 299 299 299 300 300 300 300 300 300 300 300 300 301 301 302 303 304 305 305 305 306 307 307 307 308 309 309 310 310 311 312 313 314 315 315 316 318 318 320 321 322 324 325 326 326 326 326 327 327
301 301 300 300 300 300 299 299 299 299 299 298 299 298 299 299 299 299 299 299 299 299 299 298 298 299 299 300 301 301 302 303 303 303 304 305 306 306 306 307 308 308 309 310 311 311 313 314 315 315 316 317 318 320 321 323 324 325 326 326 327 327 327
300 300 299 299 299 299 299 298 298 298 298 298 298 298 298 298 298 298 298 298 298 298 298 297 297 298 298 299 299 300 301 301 301 301 302 302 303 304 305 305 306 307 307 308 309 310 311 313 314 315 316 317 318 318 320 322 324 324 325 326 326 326 327
299 299 298 298 298 298 298 298 298 297 297 297 297 297 297 297 298 298 298 298 298 297 297 297 297 297 297 298 298 299 299 300 300 300 300 300 301 301 302 303 304 305 305 306 307 308 310 311 313 314 316 317 318 319 319 320 322 324 325 326 326 325 326
298 298 298 298 298 298 297 297 297 297 297 297 297 297 297 297 297 297 297 297 297 297 296 296 296 297 297 297 297 298 298 299 299 299 299 299 299 300 300 301 302 303 304 305 305 307 308 310 311 313 315 316 317 319 319 319 321 323 324 325 325 325 325
297 297 297 297 297 297 297 297 296 296 296 296 296 296 296 296 297 297 297 297 297 296 296 296 296 296 296 296 297 297 298 298 298 299 298 298 298 299 299 300 301 302 302 303 304 305 306 308 310 312 314 316 317 318 320 320 320 321 323 325 325 325 325
297 297 297 297 297 297 296 296 296 296 296 296 296 296 296 296 296 296 296 296 296 296 296 296 296 296 296 296 297 297 297 298 298 298 298 298 298 298 298 299 300 301 301 302 302 303 305 306 308 310 312 315 316 318 320 321 321 322 323 324 324 325 325
296 296 296 296 296 296 296 296 296 296 296 295 295 295 295 296 296 296 295 295 295 295 295 295 295 295 295 296 296 296 297 297 297 298 298 298 298 298 298 299 300 300 301 301 301 302 304 305 307 309 311 313 314 316 319 320 321 322 323 323 324 324 324
296 295 295 295 295 295 295 295 295 295 295 295 295 295 295 295 295 295 295 295 295 295 295 295 295 295 295 295 296 296 296 297 297 297 298 298 298 298 299 299 299 299 300 300 301 302 303 305 306 307 308 310 311 313 317 318 318 319 321 323 323 323 323
295 295 295 295 295 295 295 295 295 295 295 295 295 295 295 295 295 294 294 294 294 294 294 295 295 295 295 295 295 296 296 297 297 297 297 297 298 298 299 299 299 299 299 300 301 302 303 304 305 305 306 308 309 311 313 314 314 316 318 320 321 322 322
294 294 294 294 294 294 295 295 295 294 294 294 294 294 294 294 294 294 294 294 294 294 294 294 295 295 295 295 295 296 296 297 297 297 297 297 297 298 298 299 299 299 299 300 300 301 302 303 303 303 304 305 307 308 309 309 310 312 314 317 319 320 321
294 294 294 294 294 294 294 294 294 294 294 294 294 294 294 294 293 294 293 294 294 294 294 294 295 295 295 296 296 296 296 297 297 297 297 297 297 297 298 298 298 299 299 300 300 301 301 302 302 302 302 303 303 305 306 307 307 308 310 312 315 317 319
294 294 294 294 294 294 293 293 293 293 293 293 293 293 293 293 293 293 293 293 294 294 294 294 295 295 295 296 296 296 296 297 297 297 297 297 297 297 297 298 298 298 299 300 300 300 300 301 301 301 301 302 302 304 305 306 306 306 307 308 310 314 317
293 293 293 293 293 293 293 293 293 293 293 293 293 293 293 293 293 293 293 293 293 294 294 294 295 295 295 296 296 296 296 296 297 297 296 296 296 297 297 297 298 298 298 299 299 300 300 300 300 301 301 301 302 303 304 305 304 305 305 305 307 310 313
293 293 292 292 293 292 292 293 293 293 293 293 293 293 293 293 293 293 293 293 293 293 294 294 294 295 295 296 296 296 296 296 296 296 296 296 296 296 296 297 297 297 298 298 299 299 299 300 300 300 300 301 302 302 303 303 303 304 304 303 304 306 309
292 292 292 292 292 292 292 293 293 293 293 293 293 293 293 293 293 293 293 293 293 293 293 294 294 295 295 295 295 296 296 296 296 296 296 296 296 296 296 296 297 297 297 298 298 298 299 299 299 300 300 300 301 301 301 302 302 302 303 303 303 303 305

ECMWFFLT1_850_thetae_108.txt.gz
Theta_e
332 331 330 329 329 330 330 330 329 327 325 324 322 322 322 321 321 323 324 325 327 326 326 327 327 327 328 329 329 330 330 330 330 330 330 329 330 330 330 331 331 331 331 331 331 331 332 331 331 332 331 330 330 330 329 330 331 331 331 331 331 331 331
331 330 330 330 330 330 330 328 327 325 323 322 322 321 321 321 321 322 323 324 324 324 324 325 325 326 326 327 327 328 329 330 330 330 330 329 329 330 329 330 330 329 330 331 331 332 331 331 330 331 331 330 331 331 329 329 330 330 330 331 331 331 331
330 329 330 329 329 329 328 327 325 323 322 322 322 321 321 321 321 321 321 321 321 321 321 322 322 322 322 324 326 326 327 328 329 329 330 329 329 329 329 329 329 329 330 331 331 331 331 331 331 330 331 330 331 332 331 329 328 329 330 329 330 330 330
329 329 329 328 328 327 326 324 323 323 322 322 321 321 320 320 320 319 319 319 319 320 320 319 320 320 320 320 322 323 325 326 327 328 329 329 329 329 329 330 330 330 330 330 331 331 330 330 330 330 331 331 330 331 332 330 328 327 328 328 328 329 330
327 327 327 326 325 324 323 322 322 322 321 321 320 319 319 318 318 318 317 317 317 317 317 317 318 318 318 318 319 320 321 322 323 324 325 327 328 328 329 329 329 330 329 329 330 330 329 330 330 330 330 330 330 330 331 331 330 327 326 327 328 328 328
325 325 324 323 322 321 321 320 320 320 319 319 318 317 316 316 315 315 315 315 315 315 315 315 315 316 316 316 317 318 317 318 319 319 321 323 325 325 326 327 328 329 329 329 329 329 329 329 330 329 329 329 329 329 329 330 331 330 327 326 327 326 326
322 321 321 320 320 319 319 318 317 317 317 316 315 315 314 314 314 314 314 314 314 314 314 315 314 315 315 315 315 316 316 316 316 316 317 318 319 321 322 324 325 327 327 328 328 328 328 329 329 329 328 328 328 328 328 328 330 331 329 326 327 327 326
319 319 318 318 317 317 316 315 315 315 315 315 314 314 313 314 314 314 314 313 314 313 313 314 313 313 314 313 314 314 314 315 315 316 316 316 316 317 318 318 321 323 325 327 327 327 328 328 328 328 328 329 328 328 328 328 328 330 329 327 327 328 327
318 317 317 316 315 315 314 314 314 314 314 314 313 313 313 313 313 313 313 312 312 312 312 312 312 312 312 312 312 312 313 313 314 314 315 315 316 316 316 316 317 318 319 322 325 327 327 328 328 328 328 329 329 329 328 328 328 329 329 328 328 328 327
316 315 314 314 314 314 313 313 313 313 313 313 312 312 312 312 312 312 312 311 311 311 311 311 311 311 311 311 311 311 312 312 312 313 314 314 315 316 316 317 317 316 317 317 319 323 325 326 327 328 328 328 329 328 328 329 329 329 329 329 328 328 328
314 314 314 313 313 313 313 312 312 312 312 312 311 311 311 311 311 311 310 310 310 309 309 309 309 309 309 310 310 310 310 311 311 312 312 313 314 315 316 317 317 317 318 317 317 318 320 322 325 326 327 327 328 329 328 327 328 328 329 329 328 328 328
313 313 313 312 312 312 312 311 311 311 311 310 310 310 310 310 310 309 309 308 308 308 308 308 308 308 308 308 309 309 309 309 310 311 311 312 313 314 314 315 316 316 317 318 318 318 318 320 322 324 325 326 327 328 328 328 327 328 329 329 328 328 328
312 312 312 311 311 311 311 310 310 310 310 309 309 309 309 308 308 307 307 306 306 306 306 306 306 306 306 307 307 307 308 308 308 309 310 311 312 312 312 313 314 315 315 315 316 317 318 319 320 321 322 324 325 327 327 327 328 328 328 328 328 327 328
312 311 311 311 310 310 310 309 309 309 308 308 308 307 307 307 306 305 305 305 304 304 304 304 304 305 305 305 306 306 307 307 308 308 310 310 310 311 311 312 313 313 313 313 314 315 316 317 318 319 320 321 323 325 326 326 327 327 327 327 328 327 327
311 311 310 310 309 309 308 308 308 307 307 307 306 305 305 304 304 304 303 303 303 303 303 303 303 304 304 304 305 305 306 306 307 308 309 310 310 310 310 311 312 312 311 312 313 313 314 315 316 316 317 318 320 322 324 325 326 326 326 326 327 327 327
310 309 309 308 308 307 307 307 306 306 305 305 304 304 303 303 302 302 302 302 302 302 302 302 302 303 303 303 304 305 305 306 307 308 309 309 309 309 310 310 310 310 310 311 312 312 313 314 315 315 316 316 317 319 320 322 323 324 325 326 326 327 327
308 307 307 307 307 306 305 305 304 304 303 303 302 302 302 302 301 301 301 301 301 301 301 301 301 301 302 302 304 305 305 306 307 307 308 308 308 308 308 309 309 310 310 310 311 311 312 312 313 314 315 315 316 316 317 319 320 322 323 324 325 326 327
306 306 306 305 304 304 303 303 303 302 302 302 301 301 301 300 300 300 300 300 300 300 300 300 300 301 301 301 303 304 305 306 306 307 307 307 307 307 307 307 308 308 308 308 309 309 310 311 311 312 313 314 315 316 316 317 318 319 321 323 324 325 327
304 304 304 303 303 303 302 302 301 301 301 300 300 300 300 300 299 299 299 299 299 299 299 299 299 299 300 300 301 303 304 305 305 305 306 306 306 306 306 306 306 306 306 306 306 307 308 309 309 310 311 312 313 314 315 316 317 318 319 321 323 325 326
303 302 302 302 301 301 301 300 300 300 299 299 299 299 299 299 299 299 298 298 298 298 298 298 298 299 299 299 301 302 303 304 304 304 304 304 304 305 304 304 304 305 304 304 305 306 306 307 308 309 309 310 311 312 313 315 317 317 318 319 321 324 325
302 301 301 301 300 300 300 299 299 299 299 298 298 298 298 298 298 298 298 298 298 298 298 298 298 298 298 298 300 302 303 303 303 303 303 303 303 303 303 303 303 303 303 304 304 304 304 305 305 307 308 308 310 310 312 313 315 316 317 318 319 321 323
301 300 300 300 299 299 299 299 298 298 298 298 297 298 298 298 298 298 297 297 297 297 297 297 297 297 298 298 299 301 302 302 302 302 302 302 302 302 302 302 302 302 302 303 304 304 304 304 304 305 306 307 309 310 312 313 313 315 317 318 319 320 321
300 300 299 299 298 298 298 298 297 297 297 297 297 297 297 297 297 297 297 297 297 297 296 297 297 297 297 297 298 301 301 301 301 301 301 301 301 301 301 300 301 301 302 303 304 304 305 305 305 305 306 307 308 309 311 312 313 314 316 318 319 319 320
299 299 298 298 298 298 297 297 297 297 297 297 297 297 297 297 297 296 296 296 296 296 296 296 296 296 297 297 297 300 301 301 301 301 300 300 300 300 300 300 300 300 301 302 303 304 304 305 305 306 306 307 308 308 308 309 312 313 314 317 318 319 320
298 298 298 297 297 297 297 296 296 296 296 296 296 296 296 296 296 296 296 296 295 295 295 296 296 296 297 296 297 299 300 301 300 300 300 300 300 300 299 299 300 300 300 301 301 302 303 304 305 306 306 307 309 309 307 308 310 311 312 314 316 318 319
298 298 297 297 296 296 296 296 296 296 296 296 296 296 296 296 295 295 295 295 295 295 295 295 296 296 296 296 296 299 300 300 300 299 299 300 300 299 299 299 299 300 300 300 300 301 301 303 304 305 306 306 308 308 307 307 309 311 311 312 314 317 319
298 297 297 296 296 296 296 295 295 295 295 295 295 295 295 295 295 295 295 295 295 295 295 295 295 295 296 296 297 299 300 300 299 299 299 299 299 299 299 298 299 300 300 300 300 300 301 302 302 303 304 305 306 307 306 306 307 310 311 311 312 315 318
297 297 296 296 296 295 295 295 295 295 295 295 295 295 295 295 294 294 294 294 294 295 295 295 295 295 296 296 297 299 300 300 299 299 299 299 299 298 298 298 298 299 300 300 300 300 301 301 302 302 303 304 305 305 305 305 306 308 309 311 312 314 316
296 296 296 295 295 295 295 295 295 294 294 295 294 294 294 294 294 294 294 294 295 295 294 295 295 295 296 296 297 299 299 299 299 299 299 298 299 298 298 297 298 299 299 299 299 300 300 301 301 302 302 303 303 304 304 304 305 306 307 309 311 313 314
296 295 295 295 295 295 295 294 294 294 294 294 294 294 294 294 294 294 294 294 295 295 295 295 295 295 295 296 297 298 299 299 299 299 299 298 298 298 298 297 298 299 299 299 299 300 300 301 301 301 301 302 303 304 304 304 304 305 306 307 309 311 311
295 295 295 295 294 294 294 294 294 294 294 294 294 294 294 294 294 294 294 294 295 295 295 295 295 295 295 295 296 297 298 299 299 299 299 299 298 298 298 298 298 298 299 299 299 300 300 301 301 301 301 301 302 303 303 303 302 304 306 307 308 309 309
294 295 295 294 294 294 294 294 294 293 294 294 294 294 294 294 293 294 294 294 294 295 295 295 295 295 295 295 296 297 298 298 299 298 298 298 298 298 298 298 298 298 299 299 299 299 300 300 301 301 300 300 301 301 302 302 302 303 305 306 307 308 308
294 294 294 294 294 294 294 293 293 293 293 294 294 294 293 293 294 294 294 294 294 294 295 295 295 295 295 296 296 296 297 298 298 298 298 298 298 298 298 297 297 297 298 298 299 299 300 300 300 300 300 300 300 300 301 302 302 303 304 304 304 304 305
294 294 294 294 293 293 293 293 293 293 293 293 293 293 293 294 295 294 294 295 295 295 294 294 295 295 295 296 296 296 296 297 297 298 298 298 297 297 297 296 296 297 298 298 298 299 299 300 300 300 300 300 300 300 301 301 302 302 303 303 304 303 304
294 294 293 293 293 293 293 293 293 293 293 293 293 293 294 295 295 295 295 295 295 295 295 294 294 295 295 295 296 296 296 296 297 298 298 297 297 296 296 296 296 297 297 298 298 299 299 299 299 299 299 300 300 300 301 301 301 302 302 303 303 303 304
293 293 293 293 293 293 293 293 293 293 293 294 294 294 294 295 296 297 297 296 296 296 295 295 294 294 295 295 295 296 296 296 297 297 297 296 296 295 295 295 296 296 297 297 297 298 298 299 299 299 299 299 300 300 300 300 301 301 302 302 303 302 303
293 293 293 293 293 293 293 293 293 294 294 295 295 296 296 297 297 298 298 297 296 295 295 295 294 294 294 295 295 295 296 296 296 296 296 296 295 295 295 295 295 296 296 296 296 297 298 299 299 299 299 299 299 300 300 300 300 300 301 301 302 301 302

ECMWFFLT1_850_thetae_111.txt.gz
Theta_e
335 333 333 332 332 332 331 331 330 328 326 325 324 324 323 323 323 324 325 325 325 325 325 326 327 326 325 325 327 328 329 330 330 331 332 332 332 332 332 332 332 332 332 332 333 332 332 332 331 332 332 332 332 332 332 330 330 330 331 330 329 330 331
333 332 332 332 332 332 331 329 328 326 326 325 323 323 323 323 323 322 322 321 321 321 321 322 323 323 322 320 323 324 324 326 328 330 331 331 331 331 332 331 331 332 332 333 333 332 332 333 332 332 332 332 331 331 331 331 331 330 331 331 329 329 330
332 332 332 332 331 331 329 328 326 324 324 324 323 322 321 321 321 321 320 319 319 318 319 318 318 319 319 318 320 322 323 324 325 327 328 329 330 330 330 330 331 331 331 332 332 331 332 333 332 331 331 332 331 331 331 331 331 331 331 333 331 329 329
332 331 332 330 329 328 327 326 325 322 322 322 321 321 320 319 319 318 317 317 316 315 315 315 314 315 316 316 318 321 322 321 321 323 324 325 326 327 327 329 330 330 330 331 331 331 332 331 331 331 330 331 331 331 331 331 331 331 331 333 334 331 329
330 330 330 328 327 326 324 323 323 322 322 321 320 319 318 316 316 315 315 314 314 314 314 314 314 315 316 314 316 319 320 319 319 320 320 320 322 323 323 325 326 327 328 329 330 330 331 330 330 331 330 330 330 330 331 330 330 331 330 331 333 333 332
327 327 326 325 324 324 322 321 321 322 321 320 319 319 316 314 314 314 314 314 313 314 313 313 314 314 314 314 316 316 316 316 317 317 317 318 319 320 321 322 322 323 324 325 327 328 329 329 330 330 330 329 330 330 330 330 329 330 330 331 331 332 334
324 324 323 322 322 321 321 321 320 320 319 319 319 317 314 313 313 313 313 313 312 312 312 312 312 312 312 312 313 313 312 313 313 313 315 316 317 318 318 319 320 320 321 322 323 324 326 327 328 329 329 329 329 330 330 330 329 329 330 330 330 331 332
322 321 321 321 321 320 320 319 319 319 318 318 316 314 313 312 312 312 311 311 311 311 311 310 310 311 311 310 311 311 311 311 311 312 312 313 314 315 316 317 318 319 320 321 321 322 323 324 325 326 327 328 328 329 329 329 329 329 329 329 329 331 332
320 320 319 318 318 317 317 317 317 316 316 315 313 313 312 311 311 310 310 310 310 309 309 309 309 309 309 309 309 310 310 309 310 312 312 313 313 314 314 315 316 317 318 319 319 320 320 321 322 323 324 325 327 327 328 328 329 329 329 329 329 329 331
319 318 317 316 316 315 314 314 314 313 313 312 312 311 310 310 310 309 309 308 308 308 307 307 307 307 307 307 307 310 310 307 309 312 313 313 313 313 314 314 315 315 316 316 316 317 317 318 320 321 322 323 324 325 325 327 328 328 328 328 329 329 330
317 316 316 315 315 314 314 314 312 312 311 310 310 309 309 309 308 307 307 306 306 306 305 305 305 305 305 304 305 308 308 306 309 311 312 312 312 313 313 313 314 314 315 315 315 315 316 316 318 319 320 321 321 322 324 324 325 326 327 327 328 329 330
315 314 314 314 314 313 313 313 312 310 309 309 308 308 307 307 306 305 305 304 304 304 303 303 303 303 303 303 304 305 306 308 309 310 311 311 312 312 312 312 313 314 314 313 313 314 314 315 316 316 317 318 319 320 320 321 322 323 324 326 326 327 329
314 314 313 313 312 311 311 311 310 308 308 307 307 306 305 304 304 303 303 303 302 302 302 302 302 302 302 302 304 305 307 308 309 310 310 311 311 311 311 312 312 312 312 312 312 312 312 313 313 313 314 314 315 316 318 319 320 320 321 322 324 325 327
313 313 313 311 310 309 309 308 307 307 306 305 305 304 303 303 302 302 302 302 301 301 301 301 300 301 301 303 305 305 307 308 308 309 310 310 310 310 310 311 311 311 310 310 310 310 310 310 310 311 311 311 312 313 314 315 317 318 318 318 320 322 323
313 312 311 309 308 307 307 306 305 305 304 304 303 302 302 302 301 301 301 300 300 300 300 300 299 299 301 304 306 306 307 308 308 309 309 309 309 309 309 309 309 309 308 308 308 308 308 308 308 308 308 308 309 310 311 312 313 314 315 316 316 318 319
312 311 309 306 306 305 305 305 304 303 302 302 302 301 301 301 300 300 300 299 299 299 299 299 299 299 300 303 306 307 307 308 308 308 308 308 308 308 308 308 308 307 307 306 306 306 306 306 306 307 306 306 307 308 309 310 310 311 312 314 315 316 317
311 309 306 305 305 304 303 303 302 302 301 300 300 300 301 300 299 299 299 298 298 298 298 298 298 298 298 302 305 306 307 307 307 307 307 307 307 307 307 307 306 306 305 305 304 304 305 305 305 305 305 305 306 306 307 308 308 309 309 311 313 314 315
309 306 304 304 303 302 302 301 301 300 300 299 299 299 300 300 300 298 298 298 297 297 297 297 297 297 297 301 304 305 306 307 306 306 306 306 306 306 305 305 305 304 304 303 302 302 303 304 304 304 304 305 305 305 306 307 307 308 308 309 311 312 314
304 303 303 303 302 301 301 300 300 300 300 299 298 299 299 299 299 298 297 297 296 296 297 296 297 297 296 301 304 305 305 306 305 305 305 305 305 305 304 304 304 303 303 302 301 301 301 302 302 303 304 304 305 306 306 307 307 307 307 308 309 311 313
303 302 302 301 301 300 299 299 298 300 300 300 300 301 300 299 299 297 296 296 296 296 296 296 296 297 296 301 304 305 305 305 305 305 304 304 304 304 303 303 303 303 302 302 301 301 301 301 301 302 303 303 304 305 306 307 307 306 307 307 308 309 311
303 302 301 300 300 299 299 298 297 298 298 299 301 302 302 301 300 298 296 296 296 295 296 296 296 296 296 299 303 305 304 304 304 304 303 303 303 303 302 302 302 302 301 301 301 301 301 301 301 302 303 303 303 303 303 305 305 306 307 307 308 308 310
302 301 300 300 299 298 298 297 297 298 298 299 300 302 302 302 301 298 296 295 296 295 296 296 296 296 296 297 301 303 304 303 303 303 302 302 302 302 301 301 301 301 301 301 301 301 302 301 301 301 302 303 302 302 302 303 304 305 306 307 307 308 309
301 301 300 299 298 298 297 296 298 299 299 298 299 300 300 301 301 299 296 295 295 295 295 296 296 296 297 298 301 303 303 303 302 302 302 302 302 301 301 300 300 300 300 300 301 301 302 302 302 302 302 302 302 302 303 303 304 305 306 306 306 307 307
302 300 299 299 299 298 297 297 298 298 297 297 297 298 298 300 301 299 296 294 295 295 295 296 296 296 297 298 301 302 303 302 302 302 301 301 301 300 300 299 300 300 300 299 300 300 301 302 302 303 302 301 301 302 302 303 303 304 304 304 304 305 306
302 301 300 300 300 299 298 298 297 297 297 296 295 296 298 300 301 299 296 294 295 295 295 296 296 296 297 299 301 302 302 302 302 301 301 301 300 300 299 299 299 299 299 299 299 300 301 302 302 303 302 301 301 302 302 302 302 303 303 303 303 303 304
303 302 301 301 300 300 299 297 297 297 296 295 295 296 297 298 300 299 297 295 295 295 295 296 296 296 297 299 301 302 302 302 301 301 301 300 300 300 299 299 299 299 299 299 299 300 300 301 302 302 302 301 301 301 301 301 302 302 302 301 301 302 303
303 302 301 300 299 298 297 296 296 296 295 296 297 297 296 296 298 299 297 294 294 295 295 295 296 296 297 299 301 301 302 302 301 301 301 300 300 300 299 298 298 299 299 299 300 300 300 301 301 302 302 302 301 301 301 302 302 302 302 301 301 301 302
302 301 300 298 298 297 296 296 296 296 296 297 298 297 295 295 296 297 296 294 294 295 295 295 295 296 297 299 301 302 302 301 301 301 301 300 300 300 298 297 298 298 298 299 300 300 300 301 300 300 301 301 301 301 301 302 302 302 302 302 301 301 302
302 301 298 297 297 296 295 296 296 296 296 297 297 296 295 294 295 296 295 294 294 294 295 295 295 296 296 299 301 302 302 301 301 301 301 300 300 299 298 297 298 298 298 299 300 299 300 300 299 299 300 300 301 301 301 302 302 302 302 302 302 302 302
301 300 297 295 296 296 296 296 297 297 297 298 299 298 296 294 294 294 295 294 294 294 295 295 295 296 296 297 300 301 302 301 301 301 301 300 300 300 298 297 298 299 299 299 299 299 299 299 299 299 300 300 300 301 301 301 301 301 302 302 302 302 302
298 298 296 295 296 295 295 296 297 297 298 300 301 300 298 296 294 293 294 294 294 294 294 295 295 295 296 296 298 301 302 301 301 301 301 301 300 300 299 298 298 299 299 299 299 299 299 299 299 299 299 300 300 301 301 300 299 301 302 302 302 303 302
297 297 296 295 295 295 295 296 298 299 300 301 301 301 300 299 298 295 294 293 294 294 294 294 294 295 296 296 297 299 300 301 301 301 300 300 300 300 299 298 298 299 299 299 299 299 299 299 299 299 299 299 299 300 300 299 299 300 301 302 302 302 301
297 297 295 295 295 295 295 297 299 301 302 301 301 300 299 300 300 298 296 294 294 294 294 294 294 295 296 296 296 297 298 298 300 301 300 300 299 299 298 298 297 298 299 299 298 299 299 299 299 299 299 299 299 299 300 300 299 299 300 300 301 300 300
296 296 295 294 294 295 295 297 300 301 300 299 300 301 300 300 300 299 298 297 295 293 293 294 294 295 295 296 296 296 296 296 298 300 300 299 298 298 298 297 297 297 298 298 298 298 298 298 299 299 299 299 299 299 300 300 299 299 299 299 300 300 300
295 294 294 294 294 295 296 298 299 299 298 297 299 301 302 301 301 301 300 300 299 297 295 294 294 295 295 295 296 296 296 296 296 298 300 299 298 297 296 296 296 296 297 297 297 297 297 297 298 299 299 299 299 299 300 300 299 299 299 299 299 299 299
294 294 294 294 295 296 297 298 299 299 299 299 300 301 302 302 302 302 301 301 300 300 299 296 294 294 295 295 295 295 296 296 296 297 299 299 298 297 295 295 295 296 296 296 296 297 297 297 297 298 298 298 298 299 299 300 300 299 299 299 299 299 299
294 295 296 296 297 299 299 300 300 301 301 301 301 302 302 302 302 301 301 301 300 299 300 299 296 294 294 295 295 295 295 296 295 296 297 298 297 296 295 295 295 295 295 296 296 297 297 297 296 297 297 298 298 298 299 299 299 299 298 299 299 299 299

ECMWFFLT1_850_thetae_114.txt.gz
Theta_e
334 334 334 333 332 332 332 331 328 327 325 324 324 323 322 321 321 321 320 319 319 320 319 318 319 319 318 318 318 320 321 322 324 327 328 328 328 329 330 331 331 332 332 332 332 332 332 332 331 330 331 332 332 331 331 331 331 330 330 330 330 330 329
334 333 332 332 331 331 331 329 326 326 325 323 322 322 321 321 321 320 319 319 319 319 318 317 317 316 316 316 315 316 318 318 320 322 324 325 326 326 327 327 328 329 329 329 330 330 330 331 331 331 331 331 331 331 331 331 330 331 331 331 330 330 330
332 331 331 332 332 331 330 328 325 324 324 322 321 321 321 320 320 319 318 318 317 316 316 315 315 314 314 314 314 315 317 317 317 317 319 321 322 322 323 324 324 325 325 325 326 327 327 328 329 329 329 330 331 331 331 330 331 331 331 331 330 330 330
332 332 332 332 331 330 328 326 324 322 321 321 320 320 319 319 318 317 316 316 315 314 314 314 314 313 313 313 313 314 315 315 314 314 315 316 316 317 319 320 321 322 322 323 323 323 324 325 326 326 327 328 329 329 330 330 331 331 330 330 330 330 330
332 332 332 330 329 328 325 323 322 322 321 320 319 319 317 316 315 314 314 313 313 313 313 313 312 312 312 311 312 312 312 312 312 312 313 313 313 315 316 317 318 318 319 320 320 321 322 323 323 324 325 325 325 325 326 327 328 330 330 330 329 329 330
332 331 330 328 326 324 323 322 322 321 321 319 317 316 315 314 313 313 313 312 312 311 311 311 311 311 311 310 310 311 311 311 310 311 312 312 313 313 314 315 315 316 317 318 319 320 321 321 321 321 321 321 322 322 322 323 325 327 328 328 329 329 329
330 329 328 326 323 322 321 320 320 320 318 316 315 314 313 313 312 311 311 310 310 310 310 310 309 309 309 309 309 309 310 309 310 311 312 312 313 313 313 313 314 314 315 316 317 317 317 318 317 318 319 319 320 320 320 321 323 324 324 326 328 329 329
327 326 324 323 321 320 319 319 319 318 316 314 313 312 312 311 310 310 310 309 309 309 308 308 308 307 307 307 307 307 308 307 308 311 312 313 313 312 312 312 313 314 315 315 314 314 315 315 316 317 318 318 319 319 319 320 320 320 321 323 325 327 328
323 322 321 320 319 318 318 317 317 316 314 312 311 310 310 309 309 309 308 307 307 306 306 306 305 305 304 304 305 305 305 306 309 311 312 312 312 312 312 312 313 314 315 314 313 313 314 314 315 316 317 317 317 317 318 318 318 319 319 319 321 322 324
320 319 319 318 316 316 316 315 314 313 311 310 309 309 309 308 307 307 306 305 305 304 304 303 303 303 302 302 303 304 304 307 310 311 311 311 312 312 312 312 312 313 313 312 311 311 311 312 313 314 314 314 314 315 315 316 316 316 317 318 319 320 320
318 318 318 317 316 315 315 313 312 311 309 309 308 307 307 306 305 304 304 303 303 302 302 301 302 301 301 301 302 303 304 307 309 310 310 311 311 311 311 311 311 311 310 309 309 309 309 309 309 309 309 310 310 311 312 313 313 314 315 316 316 317 316
316 316 317 316 315 315 314 312 311 310 308 308 307 306 305 304 304 302 302 302 301 301 300 300 301 300 301 303 303 303 306 308 309 310 310 310 310 310 310 309 309 308 307 307 306 306 306 306 306 306 306 307 307 307 308 309 310 311 311 312 312 313 313
315 315 315 314 314 314 312 310 309 307 307 306 305 304 304 303 302 301 301 300 300 300 299 299 300 299 302 305 305 306 308 309 309 309 309 309 309 308 308 308 308 307 305 304 304 304 304 304 304 304 305 305 305 305 305 306 307 308 308 308 309 309 310
315 314 313 312 312 311 309 308 307 306 305 304 304 303 302 301 300 300 300 299 299 299 298 298 299 298 302 306 307 307 308 308 308 308 308 308 308 307 307 307 306 305 303 303 303 303 303 303 303 304 303 303 304 304 304 305 305 306 306 306 307 307 308
313 312 312 311 309 308 307 306 306 304 303 303 303 302 300 299 299 298 299 298 298 298 297 298 298 297 301 305 307 307 307 307 307 307 306 306 306 305 305 305 305 303 302 302 302 302 302 302 303 303 303 303 303 303 304 304 304 304 305 306 306 307 307
311 310 310 308 307 306 305 304 304 303 302 301 301 300 299 298 298 298 298 297 297 297 297 297 297 297 301 304 305 306 306 306 306 306 305 304 304 303 303 303 303 302 301 301 301 301 302 302 302 303 303 303 303 303 303 303 303 303 303 305 306 306 307
310 308 307 306 306 306 304 303 302 302 301 300 300 299 298 298 297 297 297 296 296 297 296 297 297 297 302 304 304 304 305 306 305 304 304 304 303 303 302 302 302 302 301 301 300 300 301 302 302 303 303 303 303 303 303 302 302 302 302 304 305 305 306
308 306 305 305 305 305 302 301 301 300 300 300 300 298 297 297 297 296 296 296 296 296 296 297 296 297 302 304 304 303 304 304 303 303 303 303 302 302 302 302 302 301 300 300 299 300 300 301 302 302 302 303 302 301 301 301 301 302 302 303 304 304 305
305 304 304 304 304 302 301 300 300 300 299 298 298 297 296 296 296 295 296 296 296 296 296 296 296 297 300 303 304 304 303 302 302 303 303 302 300 301 300 301 301 300 300 299 299 299 300 300 301 302 302 302 300 299 300 300 301 302 303 303 304 304 305
304 303 303 303 302 301 302 302 301 302 302 301 300 298 295 295 296 295 296 296 296 296 296 296 296 297 300 301 303 304 303 302 302 302 302 300 299 299 299 300 300 300 299 299 299 300 300 300 301 302 302 301 300 300 300 301 301 302 302 303 303 304 305
304 303 303 302 301 301 301 302 302 303 304 303 302 300 296 295 295 295 295 295 296 296 296 296 296 298 300 301 303 304 303 301 301 301 300 299 298 299 299 299 299 299 299 300 300 300 300 301 301 301 301 300 300 301 301 301 301 302 302 302 302 303 303
304 303 302 301 300 300 299 299 300 301 302 303 304 301 297 295 295 295 295 295 296 296 296 296 297 298 300 301 302 303 303 301 300 300 299 298 298 298 298 299 299 299 300 300 300 301 301 301 301 300 300 300 300 301 301 301 301 301 301 301 301 301 302
303 302 301 300 299 299 298 299 299 300 301 302 303 301 297 295 295 295 295 295 296 296 296 296 297 298 300 301 302 303 302 301 300 300 299 298 298 298 298 298 299 300 300 299 300 300 301 301 301 300 300 300 300 301 301 301 301 301 301 300 299 300 300
301 300 300 299 299 298 298 299 298 298 299 299 300 301 298 295 294 295 295 295 295 295 296 296 297 298 300 301 302 302 302 301 301 300 299 299 298 298 298 299 299 299 299 299 299 300 300 300 300 300 300 300 300 300 300 300 300 300 299 299 298 298 299
300 300 301 299 298 298 299 298 298 298 298 298 300 302 301 297 295 295 295 295 295 295 296 297 298 298 299 301 302 302 301 301 301 301 300 300 298 297 298 299 299 299 299 299 299 299 299 299 299 299 300 300 299 299 299 299 299 298 298 298 298 298 298
303 303 302 300 299 299 298 297 296 296 297 298 298 301 301 298 295 294 295 295 295 295 296 297 298 298 299 300 302 302 302 302 301 301 301 300 299 297 298 299 300 299 299 299 299 299 299 299 299 299 299 299 299 299 298 298 298 298 298 297 297 298 298
305 304 303 302 302 300 297 296 296 296 296 297 297 299 300 297 294 294 295 295 295 295 296 297 298 299 300 301 302 302 302 302 302 301 301 300 299 298 298 299 300 299 299 299 299 299 299 299 299 299 299 299 299 299 299 299 299 299 298 298 298 298 298
304 304 303 302 301 299 298 298 297 298 298 297 296 297 298 297 295 294 295 295 295 295 295 296 297 299 301 302 302 302 302 302 302 301 301 300 299 298 298 299 299 299 299 299 299 299 299 299 299 299 299 299 299 299 299 299 299 299 299 298 298 298 298
303 303 302 300 298 298 299 299 298 297 297 296 296 296 296 296 295 294 294 295 295 295 295 296 297 298 300 302 302 302 302 301 301 301 301 300 299 299 298 298 299 299 299 298 298 298 298 298 298 298 298 298 298 299 299 299 299 299 299 299 298 298 298
302 302 300 298 296 297 298 299 297 295 295 295 295 294 295 295 295 294 294 294 294 295 295 295 296 297 299 300 301 302 302 302 301 301 300 300 299 299 298 298 298 299 298 298 298 298 297 298 298 297 298 298 298 299 299 299 299 299 299 299 299 298 298
300 299 298 296 295 296 298 300 299 299 299 298 296 294 294 294 294 294 294 294 294 295 295 295 295 296 296 297 298 299 300 301 301 300 300 299 299 298 298 297 297 298 298 297 297 297 297 297 297 297 297 298 298 299 299 299 299 298 299 299 299 299 299
297 296 296 295 295 296 298 300 301 301 302 302 300 297 295 294 294 294 294 294 294 294 294 295 295 295 296 296 296 296 297 298 300 300 300 299 298 297 297 296 296 297 297 297 297 297 296 296 297 297 297 297 298 299 299 299 298 298 298 298 298 299 299
295 295 295 295 295 296 298 300 301 302 303 302 301 299 297 296 295 294 294 294 294 294 294 294 294 295 295 295 295 296 296 297 298 299 300 299 298 296 295 295 296 296 296 296 296 296 296 296 297 297 297 297 298 298 299 299 298 298 298 298 298 298 298
295 295 295 295 295 296 299 302 303 303 302 301 300 299 299 299 299 297 296 295 295 294 294 294 294 294 294 295 295 295 295 296 297 297 298 299 298 296 295 295 295 295 296 296 296 296 296 296 296 297 297 297 297 298 298 299 298 298 297 298 298 298 298
295 295 295 295 295 297 301 303 304 302 301 300 301 302 302 302 301 301 300 299 297 296 295 294 294 294 294 294 295 295 295 295 295 296 297 298 297 296 295 295 295 295 295 296 296 296 296 296 296 296 297 297 297 297 298 298 298 298 297 297 298 298 298
295 295 295 294 296 299 301 302 301 299 299 301 302 303 303 303 302 302 301 300 300 299 297 294 293 293 294 294 294 295 295 295 295 295 295 296 296 295 295 296 296 296 295 295 296 296 296 296 296 296 296 297 297 297 297 298 297 297 297 297 297 298 298
295 295 295 295 297 300 301 300 300 300 301 302 303 303 303 303 302 302 301 301 300 299 297 294 293 293 294 294 294 294 295 295 294 294 295 295 295 295 296 296 296 296 296 295 296 296 296 296 296 296 296 296 296 296 297 297 297 297 297 297 297 297 298